GFSWCAN_prec_kuchsnow_237.txt.gz
Snowfall_Accumulation
0.0 0.0 0.0 0.0 0.0 0.0 0.0 0.0 0.0 0.0 0.0 0.0 0.0 0.0 0.0 0.0 0.0 0.0 0.0 0.0 0.2 15.7 4.9 0.0 0.0 1.8 4.1 5.1 16.8 8.5 11.2 12.8 20.6 35.8 26.1 19.2 11.4 1.6 4.4 2.5 2.4 3.6 13.6 20.5 21.0 30.6 19.2 0.1 0.0 1.0 0.7 0.1 0.6 3.6
0.0 0.0 0.0 0.0 0.0 0.0 0.0 0.0 0.0 0.0 0.0 0.0 0.0 0.0 0.0 0.0 0.0 0.0 0.5 0.0 0.0 11.1 10.7 0.0 0.0 0.0 0.0 0.0 3.6 8.0 11.7 7.8 7.0 20.5 14.7 10.4 14.0 9.4 2.3 8.6 2.5 8.6 3.9 9.6 8.5 10.7 1.0 0.0 0.3 0.2 0.2 0.4 1.1 3.6
0.0 0.0 0.0 0.0 0.0 0.0 0.0 0.0 0.0 0.0 0.0 0.0 0.0 0.0 0.0 0.0 0.0 0.0 0.0 0.0 0.0 16.6 7.9 2.3 4.2 0.0 0.0 0.0 0.0 10.8 3.3 1.7 6.4 5.1 10.5 8.0 15.0 4.2 10.2 6.9 6.4 2.6 0.9 3.8 1.4 0.6 0.2 0.0 0.0 0.0 0.1 0.1 0.2 1.3
0.0 0.0 0.0 0.0 0.0 0.0 0.0 0.0 0.0 0.0 0.0 0.0 0.0 0.0 0.0 0.0 0.0 0.0 0.0 0.0 1.8 8.3 24.8 7.3 0.0 2.0 0.0 0.0 0.0 0.0 0.0 0.0 0.1 0.6 10.5 10.5 10.9 0.9 2.7 1.5 4.4 5.2 4.5 5.0 2.1 0.3 0.4 0.1 0.2 0.1 0.1 0.1 0.2 0.1
0.0 0.0 0.0 0.0 0.0 0.0 0.0 0.0 0.0 0.0 0.0 0.0 0.0 0.0 0.0 0.0 0.0 0.0 0.0 0.0 0.0 2.9 14.8 7.0 0.0 0.0 0.5 0.0 0.0 0.0 0.0 0.9 1.6 7.0 14.1 10.8 1.3 2.9 2.2 2.6 5.5 1.2 8.2 9.7 8.6 1.5 2.2 0.6 0.3 0.1 0.4 0.6 0.6 0.4
0.0 0.0 0.0 0.0 0.0 0.0 0.0 0.0 0.0 0.0 0.0 0.0 0.0 0.0 0.0 0.0 0.0 0.0 35.2 0.0 0.0 0.0 7.8 15.5 0.9 1.1 2.3 0.8 0.2 0.4 0.5 1.8 1.9 4.8 5.5 1.7 0.0 2.3 9.1 5.9 0.4 0.7 3.5 4.9 8.5 2.1 2.1 1.8 0.9 0.3 1.3 2.3 2.8 1.8
0.0 0.0 0.0 0.0 0.0 0.0 0.0 0.0 0.0 0.0 0.0 0.0 0.0 0.0 0.0 0.0 0.0 13.0 7.7 0.3 0.0 0.0 19.6 15.6 9.8 0.6 1.0 1.0 1.2 3.7 1.5 4.4 3.0 3.8 3.6 1.3 1.2 1.2 3.5 1.0 0.0 0.0 0.8 2.4 3.6 5.3 6.4 6.4 9.9 4.7 1.2 1.5 1.8 0.3
0.0 0.0 0.0 0.0 0.0 0.0 0.0 0.0 0.0 0.0 0.0 0.0 0.0 0.0 0.0 0.0 0.0 2.0 0.0 0.0 0.0 1.2 6.2 19.3 13.2 9.3 0.3 5.2 7.1 1.4 7.1 4.5 5.2 4.6 2.2 1.5 1.4 1.9 6.8 0.0 0.0 0.1 0.2 0.6 0.5 0.8 3.2 4.1 3.9 3.4 1.0 0.2 0.1 0.0
0.0 0.0 0.0 0.0 0.0 0.0 0.0 0.0 0.0 0.0 0.0 0.0 0.0 0.0 0.0 0.0 19.2 0.0 0.0 0.0 0.0 1.4 19.3 9.6 8.6 19.5 0.5 3.9 2.7 3.3 2.2 17.3 3.8 11.1 4.3 2.4 4.4 7.4 0.7 0.0 0.0 0.1 0.1 0.0 0.0 0.0 0.1 0.2 0.2 0.0 0.3 0.1 0.6 0.7
0.0 0.0 0.0 0.0 0.0 0.0 0.0 0.0 0.0 0.0 0.0 0.0 0.0 24.5 49.9 1.8 0.0 0.0 3.1 12.7 15.2 11.1 6.2 8.5 0.7 9.2 1.2 1.5 9.5 8.6 7.6 9.4 14.7 4.0 1.6 6.7 2.8 0.8 0.3 0.3 0.2 0.2 0.0 0.0 0.5 1.2 1.0 0.7 0.2 0.0 0.0 0.5 0.2 0.1
0.0 0.0 0.0 0.0 0.0 0.0 0.0 0.0 0.0 0.0 0.0 0.0 20.2 16.1 0.0 0.0 0.1 5.0 29.6 20.4 12.2 13.9 1.9 1.0 0.0 1.0 0.0 5.7 9.9 3.4 13.5 6.4 14.6 3.0 3.9 6.1 4.4 3.2 1.2 1.5 0.8 0.5 0.2 0.1 0.0 0.1 0.0 0.0 1.1 0.9 0.5 0.1 0.0 0.1
0.0 0.0 0.0 0.0 0.0 0.0 0.0 0.0 0.0 0.0 0.0 0.0 0.0 0.0 0.0 4.5 15.9 23.7 21.5 10.7 2.8 2.5 2.2 1.9 3.2 4.1 0.9 0.4 9.1 11.5 12.0 11.3 9.1 1.3 11.9 9.1 5.8 2.2 1.8 3.2 1.0 0.0 0.0 0.0 0.0 0.0 0.0 0.0 0.0 0.1 0.7 0.7 0.9 3.7
0.0 0.0 0.0 0.0 0.0 0.0 0.0 0.0 0.0 0.0 0.0 0.0 4.6 12.6 13.8 17.5 28.6 18.1 11.7 6.6 4.5 1.0 0.8 0.6 7.9 2.6 3.8 0.9 11.2 14.7 22.6 11.9 1.4 25.1 15.4 7.6 2.9 4.2 3.2 0.8 0.2 0.4 0.2 0.0 0.3 0.0 0.0 0.0 0.7 1.5 2.5 6.2 5.8 6.0
0.0 0.0 0.0 0.0 0.0 0.0 0.0 0.0 0.0 0.0 0.0 6.6 14.9 24.5 17.8 13.9 9.2 6.3 3.5 2.2 0.6 0.4 0.9 1.7 5.0 5.2 1.8 8.7 9.0 17.8 10.9 9.5 19.2 15.3 11.2 9.2 6.4 4.3 3.5 2.9 2.9 2.4 1.2 1.4 0.7 0.6 1.9 1.6 3.0 4.5 4.5 6.7 6.1 6.7
0.0 0.0 0.0 0.0 0.0 0.0 0.0 0.0 0.0 0.0 5.5 14.9 7.7 12.2 9.0 7.5 4.5 3.3 2.2 1.3 1.1 1.6 4.0 8.5 7.3 3.8 8.4 13.8 6.0 6.8 14.4 16.6 13.2 16.1 12.2 10.2 7.3 5.8 6.1 5.9 6.6 8.7 9.7 9.1 11.8 13.0 12.6 10.3 8.1 11.0 11.1 9.9 7.9 8.9
0.0 0.0 0.0 0.0 0.0 0.0 0.0 0.0 1.2 3.2 8.5 7.1 7.9 9.0 6.1 4.3 7.1 5.2 4.4 3.6 1.6 2.9 5.3 8.2 12.6 12.2 13.3 9.0 10.0 10.8 12.4 18.2 15.5 10.4 7.2 3.8 3.4 3.9 5.1 6.8 8.2 9.8 11.8 12.9 13.0 14.8 17.5 19.2 19.2 19.7 19.1 16.9 16.4 14.2
0.0 0.1 0.0 0.0 0.0 0.5 1.6 3.1 2.3 11.2 8.3 5.1 11.4 7.4 8.0 9.0 7.9 6.8 6.9 6.5 4.8 8.6 13.3 10.2 17.0 13.1 6.5 7.5 8.3 8.6 15.4 13.2 8.3 7.9 5.5 5.0 6.5 7.0 7.0 6.5 7.7 8.1 11.3 13.0 13.7 14.8 16.7 17.8 16.5 14.9 17.2 20.7 17.7 17.5
0.2 0.0 0.0 0.0 0.0 3.4 5.5 0.9 7.2 6.3 7.9 7.8 11.4 12.6 7.0 8.5 9.7 9.0 7.9 8.2 7.8 6.2 5.7 12.9 4.9 5.0 7.0 8.3 13.9 15.2 13.7 10.5 6.5 7.3 8.1 8.6 8.0 8.7 7.6 6.8 8.1 8.5 10.0 12.9 12.2 13.9 13.7 12.0 10.8 13.2 13.0 13.9 12.7 14.5
0.1 0.1 0.0 0.0 0.0 4.1 11.0 5.0 1.7 7.7 9.2 7.8 8.5 7.6 6.3 10.0 12.1 10.7 10.6 9.5 6.2 3.9 7.1 6.6 7.7 6.1 10.4 12.5 15.8 13.7 10.9 9.0 11.4 12.2 13.2 13.0 11.9 10.6 10.0 9.4 8.7 11.7 11.9 13.7 12.1 10.8 11.8 10.7 9.1 9.1 9.7 9.5 8.7 10.7
0.0 0.0 0.0 0.0 0.0 12.7 12.8 7.0 0.6 2.4 6.5 6.5 5.4 6.5 6.2 11.1 10.3 8.8 7.0 5.8 5.0 7.2 9.3 9.3 13.8 16.7 18.6 18.4 18.5 16.6 12.8 10.1 8.4 10.5 14.1 16.5 16.9 13.0 13.0 12.8 13.5 12.9 11.1 11.7 12.2 12.1 11.6 12.1 12.1 8.3 7.1 8.2 7.7 7.9
0.2 0.0 0.0 0.0 1.0 5.8 6.7 4.6 6.1 2.0 3.7 5.0 4.8 1.9 7.1 3.1 4.5 4.9 4.4 1.9 4.5 10.2 13.0 16.0 19.0 18.1 18.0 19.9 16.9 12.5 12.0 8.7 10.7 8.8 10.7 13.8 15.6 11.1 12.4 13.1 10.6 9.2 7.4 9.3 9.7 13.6 11.9 10.2 10.3 9.0 6.7 5.7 6.0 5.2
0.3 0.0 1.9 0.7 8.0 8.4 9.2 2.2 1.9 2.7 2.8 3.5 2.8 2.0 4.4 5.1 3.3 3.5 0.8 2.8 12.2 18.8 16.8 17.4 17.3 15.9 14.3 16.1 17.6 14.8 16.3 10.6 9.9 9.9 11.1 9.2 11.7 11.0 12.0 12.9 9.0 9.1 8.0 8.4 7.2 8.6 8.6 6.8 5.8 5.7 4.9 4.0 2.6 3.5
0.5 1.0 6.3 5.2 9.8 6.4 4.5 1.1 4.4 4.7 6.6 5.9 3.5 3.9 5.1 3.6 3.3 0.1 4.3 9.1 17.1 19.6 16.3 13.5 14.7 14.9 15.2 17.2 13.0 12.4 14.5 11.3 13.3 16.2 15.6 14.0 13.1 12.6 10.6 10.0 9.0 7.9 8.0 8.8 5.8 5.3 4.2 3.4 3.0 3.7 3.6 3.3 3.2 3.4
0.8 6.5 9.3 9.0 7.1 4.7 1.9 3.2 3.4 4.1 3.9 3.7 4.6 4.5 5.3 3.3 0.1 4.6 10.2 15.3 18.4 12.1 10.5 12.4 10.5 13.1 13.0 11.8 13.9 15.1 17.9 11.9 11.7 13.9 14.7 11.1 9.6 11.6 8.2 7.8 6.4 6.0 5.7 5.1 3.2 3.1 2.7 2.7 1.7 2.2 2.4 3.6 2.9 2.9
19.5 13.7 8.0 7.3 4.5 5.7 4.2 1.7 2.3 4.3 7.9 6.1 8.5 9.0 10.5 5.4 10.7 10.2 13.2 17.7 12.2 11.1 10.8 10.5 9.8 10.0 10.5 13.2 14.9 15.5 14.4 13.7 14.2 14.1 16.6 12.9 10.8 9.4 8.5 7.0 5.9 6.1 3.8 3.5 4.8 4.3 3.6 2.9 2.9 2.3 1.5 1.2 1.3 2.6
8.0 4.7 8.0 6.6 6.8 7.5 7.5 6.6 6.7 5.3 4.8 4.8 6.6 2.7 2.3 4.5 6.8 18.2 18.4 19.0 14.0 13.6 14.2 14.4 13.8 10.4 10.8 11.8 11.2 9.1 11.5 11.4 11.3 11.0 16.8 13.6 12.8 12.8 10.8 8.8 7.4 7.8 4.3 3.9 4.8 4.5 3.4 3.0 2.6 2.3 2.5 1.6 1.6 3.0
7.8 4.1 1.4 0.7 1.5 2.2 2.8 2.8 2.8 4.1 5.6 8.1 5.9 5.1 4.8 9.5 12.2 14.4 11.9 11.6 11.8 13.5 11.9 11.9 10.3 11.0 12.0 11.2 9.8 8.7 7.5 6.5 6.9 9.8 11.4 11.3 11.6 12.8 12.8 14.0 12.7 11.6 6.6 5.2 3.9 4.2 5.0 4.2 3.7 3.3 3.2 3.6 3.0 4.2
3.9 1.3 2.4 1.8 2.3 2.0 3.3 2.8 4.4 6.0 5.3 3.5 3.5 5.7 7.8 9.2 14.1 14.2 12.5 12.3 9.9 7.8 6.3 5.7 4.9 5.5 6.2 6.5 6.7 6.0 4.9 5.9 6.2 6.0 5.2 5.5 7.7 11.1 10.9 10.2 8.2 6.9 7.5 6.9 6.5 4.9 4.5 4.6 4.5 4.5 3.9 3.9 4.0 3.6
2.3 2.1 2.7 4.3 3.4 2.9 5.9 6.3 7.2 4.8 4.2 3.9 5.1 6.4 8.8 9.5 14.4 12.6 11.5 8.7 7.4 5.6 4.9 3.9 4.5 2.1 2.0 1.3 1.5 2.7 4.2 5.1 4.9 6.3 5.7 6.6 8.4 7.9 7.4 7.5 6.5 6.9 7.1 7.9 7.2 6.4 6.0 4.7 3.7 3.8 4.9 6.2 5.0 5.1
1.8 1.9 2.6 2.2 2.7 4.6 8.3 4.0 5.2 3.4 1.4 1.5 1.1 1.5 2.9 11.0 17.7 11.9 8.4 6.3 5.4 6.1 5.9 4.9 3.8 2.5 2.6 2.2 1.9 1.7 3.6 4.2 4.7 5.9 6.0 5.5 6.9 6.2 5.9 6.0 5.7 5.0 6.2 6.8 9.2 9.0 9.2 7.5 6.9 7.2 6.6 6.0 6.6 8.8
0.6 1.1 1.3 2.0 3.5 6.5 4.3 2.7 2.5 2.0 1.3 1.1 0.6 1.5 4.3 8.0 10.7 7.2 5.2 6.1 4.2 3.0 2.6 2.9 3.1 3.4 2.7 3.2 4.7 4.4 4.6 3.1 3.2 3.9 4.1 4.9 4.4 4.5 4.4 3.7 4.8 4.9 5.4 6.4 6.3 8.4 11.1 11.2 10.3 10.5 8.6 7.2 7.0 7.5
1.1 1.8 2.0 1.7 3.4 3.3 4.0 5.8 3.4 2.3 2.3 1.8 4.0 2.8 5.8 5.6 6.2 7.3 4.9 4.8 4.1 3.0 2.9 3.9 4.1 4.5 5.1 6.3 6.7 6.7 6.2 4.7 4.1 4.3 4.0 4.0 4.7 4.8 4.2 2.9 2.9 3.5 3.7 4.6 5.1 6.8 8.6 10.9 13.1 11.7 10.0 8.8 8.9 8.5
1.4 1.6 1.8 1.9 2.4 3.1 2.1 3.5 1.5 2.4 2.7 4.0 7.0 5.0 5.3 5.1 9.4 11.0 4.3 4.6 8.4 7.0 6.8 7.5 7.3 7.3 7.9 7.6 7.8 6.4 4.3 5.0 4.4 4.1 3.8 4.0 3.7 3.7 3.4 3.3 3.5 3.8 3.7 3.8 4.6 5.6 6.1 8.2 9.5 12.1 12.8 12.8 12.2 11.1

GFSWCAN_prec_kuchsnow_240.txt.gz
Snowfall_Accumulation
0.0 0.0 0.0 0.0 0.0 0.0 0.0 0.0 0.0 0.0 0.0 0.0 0.0 0.0 0.0 0.0 0.0 0.0 0.0 0.0 0.2 16.4 5.0 0.0 0.0 1.8 4.1 5.1 16.8 8.5 11.9 12.8 20.6 37.1 26.8 19.5 11.8 1.7 4.5 2.5 2.4 3.6 13.8 20.6 21.0 31.0 19.4 0.1 0.0 1.0 0.7 0.1 0.6 3.6
0.0 0.0 0.0 0.0 0.0 0.0 0.0 0.0 0.0 0.0 0.0 0.0 0.0 0.0 0.0 0.0 0.0 0.0 0.5 0.0 0.0 11.4 10.8 0.0 0.0 0.0 0.0 0.0 3.6 8.1 12.3 8.0 7.9 22.4 15.7 11.5 15.0 10.3 2.8 9.2 2.5 8.9 3.9 9.7 8.5 10.7 1.0 0.0 0.3 0.2 0.2 0.4 1.1 3.6
0.0 0.0 0.0 0.0 0.0 0.0 0.0 0.0 0.0 0.0 0.0 0.0 0.0 0.0 0.0 0.0 0.0 0.0 0.0 0.0 0.0 16.8 7.9 2.3 4.2 0.0 0.0 0.0 0.0 12.8 3.3 1.7 6.4 5.1 11.1 8.7 15.4 4.2 10.5 6.9 6.4 2.6 0.9 3.9 1.4 0.6 0.2 0.0 0.0 0.0 0.1 0.1 0.2 1.3
0.0 0.0 0.0 0.0 0.0 0.0 0.0 0.0 0.0 0.0 0.0 0.0 0.0 0.0 0.0 0.0 0.0 0.0 0.0 0.0 1.8 8.5 25.2 7.3 0.0 2.0 0.0 0.0 0.0 0.0 0.0 0.0 0.1 0.6 11.7 11.4 11.3 0.9 2.7 1.5 4.5 5.2 4.5 5.0 2.1 0.3 0.4 0.1 0.2 0.1 0.1 0.1 0.2 0.1
0.0 0.0 0.0 0.0 0.0 0.0 0.0 0.0 0.0 0.0 0.0 0.0 0.0 0.0 0.0 0.0 0.0 0.0 0.0 0.0 0.0 3.2 15.1 7.0 0.0 0.0 0.5 0.0 0.0 0.0 0.0 0.9 1.7 7.8 14.9 11.3 1.3 3.0 2.2 2.6 5.5 1.2 8.2 9.7 8.6 1.5 2.2 0.6 0.3 0.1 0.4 0.6 0.6 0.4
0.0 0.0 0.0 0.0 0.0 0.0 0.0 0.0 0.0 0.0 0.0 0.0 0.0 0.0 0.0 0.0 0.0 0.0 35.3 0.0 0.0 0.0 10.2 16.3 0.9 1.1 2.3 0.8 0.2 0.4 0.5 1.8 1.9 5.2 5.9 1.7 0.0 2.6 9.7 6.0 0.4 0.7 3.5 4.9 8.5 2.1 2.1 1.8 0.9 0.3 1.3 2.3 2.8 1.8
0.0 0.0 0.0 0.0 0.0 0.0 0.0 0.0 0.0 0.0 0.0 0.0 0.0 0.0 0.0 0.0 0.0 13.1 7.7 0.3 0.0 0.0 21.2 16.4 9.8 0.6 1.0 1.0 1.2 3.7 1.5 4.4 3.1 3.8 3.9 1.4 1.2 1.3 4.0 1.1 0.0 0.0 0.8 2.4 3.6 5.3 6.4 6.4 9.9 4.7 1.2 1.5 1.8 0.3
0.0 0.0 0.0 0.0 0.0 0.0 0.0 0.0 0.0 0.0 0.0 0.0 0.0 0.0 0.0 0.0 0.0 2.0 0.0 0.0 0.0 1.2 6.9 20.2 13.3 9.4 0.3 5.2 7.1 1.4 7.2 4.6 5.4 4.7 2.2 1.5 1.4 2.2 7.4 0.0 0.0 0.1 0.2 0.6 0.5 0.8 3.2 4.1 3.9 3.4 1.0 0.2 0.1 0.0
0.0 0.0 0.0 0.0 0.0 0.0 0.0 0.0 0.0 0.0 0.0 0.0 0.0 0.0 0.0 0.0 19.2 0.0 0.0 0.0 0.0 1.4 20.3 10.0 8.8 20.0 0.5 3.9 2.7 3.3 2.2 17.5 3.8 11.3 4.4 2.4 4.6 7.7 0.7 0.0 0.0 0.1 0.1 0.0 0.0 0.0 0.1 0.2 0.2 0.0 0.3 0.1 0.6 0.7
0.0 0.0 0.0 0.0 0.0 0.0 0.0 0.0 0.0 0.0 0.0 0.0 0.0 24.5 49.9 1.8 0.0 0.0 3.1 12.7 15.4 11.3 6.6 8.6 0.7 9.5 1.2 1.5 9.9 8.9 7.8 9.5 15.1 4.1 1.6 6.8 2.8 0.8 0.3 0.3 0.2 0.2 0.0 0.0 0.5 1.2 1.0 0.7 0.2 0.0 0.0 0.5 0.2 0.1
0.0 0.0 0.0 0.0 0.0 0.0 0.0 0.0 0.0 0.0 0.0 0.0 20.2 16.1 0.0 0.0 0.1 5.0 30.0 20.7 12.3 14.3 1.9 1.0 0.0 1.0 0.0 5.9 10.1 3.5 13.7 6.6 15.2 3.2 3.9 6.4 4.6 3.5 1.2 1.5 0.8 0.5 0.2 0.1 0.0 0.1 0.0 0.0 1.1 0.9 0.5 0.1 0.0 0.1
0.0 0.0 0.0 0.0 0.0 0.0 0.0 0.0 0.0 0.0 0.0 0.0 0.0 0.0 0.0 4.5 15.9 23.9 21.7 10.7 2.8 2.5 2.2 1.9 3.2 4.1 0.9 0.4 9.1 11.5 12.2 11.5 9.5 1.3 12.4 9.1 6.4 2.2 1.8 3.2 1.0 0.0 0.0 0.0 0.0 0.0 0.0 0.0 0.0 0.1 0.7 0.7 0.9 3.7
0.0 0.0 0.0 0.0 0.0 0.0 0.0 0.0 0.0 0.0 0.0 0.0 4.7 12.6 13.9 17.6 29.0 18.5 11.8 6.6 4.6 1.0 0.8 0.6 8.1 2.6 3.8 0.9 11.2 14.7 22.6 11.9 1.4 25.4 15.4 8.3 3.4 4.2 3.2 0.8 0.2 0.4 0.2 0.0 0.3 0.0 0.0 0.0 0.7 1.6 2.7 6.2 5.8 6.0
0.0 0.0 0.0 0.0 0.0 0.0 0.0 0.0 0.0 0.0 0.0 6.7 15.0 24.7 17.9 14.0 9.2 6.3 3.5 2.2 0.6 0.4 0.9 1.7 5.0 5.2 1.8 9.0 9.1 18.1 11.0 9.6 19.5 15.5 11.9 9.7 6.4 4.3 3.5 2.9 2.9 2.4 1.2 1.4 0.7 0.6 1.9 1.6 3.0 4.5 4.7 7.0 6.3 6.8
0.0 0.0 0.0 0.0 0.0 0.0 0.0 0.0 0.0 0.0 5.5 15.1 7.7 12.3 9.0 7.5 4.5 3.3 2.2 1.3 1.1 1.6 4.0 8.5 7.3 3.8 8.4 14.0 6.0 6.8 14.9 16.6 13.2 16.7 12.7 10.2 7.3 5.8 6.1 5.9 6.6 8.7 9.7 9.1 11.8 13.0 12.6 10.3 8.4 11.4 11.5 10.3 8.2 9.1
0.0 0.0 0.0 0.0 0.0 0.0 0.0 0.0 1.2 3.2 8.6 7.1 7.9 9.0 6.1 4.3 7.2 5.2 4.4 3.7 1.6 2.9 5.3 8.2 12.7 12.4 13.5 9.1 10.2 11.1 12.8 18.8 16.2 10.5 7.2 3.8 3.4 3.9 5.1 6.8 8.2 9.8 11.9 12.9 13.0 14.9 17.5 19.4 19.8 20.6 19.8 17.6 17.0 14.7
0.0 0.1 0.0 0.0 0.0 0.5 1.6 3.1 2.3 11.7 8.4 5.1 11.4 7.4 8.0 9.0 7.9 6.9 6.9 6.5 4.8 8.6 13.4 10.3 17.6 13.1 6.6 7.8 8.7 8.9 16.0 13.8 8.3 7.9 5.5 5.0 6.5 7.1 7.0 6.5 7.7 8.1 11.4 13.0 13.7 14.8 16.8 18.0 17.0 15.5 17.9 21.2 18.0 17.9
0.2 0.0 0.0 0.0 0.0 3.4 5.5 0.9 7.5 6.5 8.1 7.8 11.4 12.6 7.0 8.5 9.8 9.0 7.9 8.2 7.9 6.3 5.7 13.1 5.1 5.4 7.4 8.5 14.4 15.4 13.7 10.5 6.5 7.3 8.1 8.6 8.0 8.7 7.6 6.8 8.1 8.5 10.1 13.0 12.4 14.1 14.0 12.2 11.0 13.6 13.4 14.4 13.0 14.5
0.1 0.1 0.0 0.0 0.0 4.7 11.7 5.2 1.7 8.0 9.2 7.8 8.5 7.6 6.3 10.0 12.1 10.7 10.6 9.5 6.2 3.9 7.1 6.6 7.9 6.1 10.7 12.6 15.8 13.7 10.9 9.0 11.4 12.2 13.2 13.0 11.9 10.6 10.0 9.4 8.7 11.7 11.9 13.9 12.3 11.1 12.2 11.1 9.6 9.5 10.3 10.3 9.5 11.5
0.0 0.0 0.0 0.0 0.0 13.8 13.5 7.0 0.6 2.5 6.5 6.5 5.4 6.5 6.2 11.2 10.3 8.8 7.0 5.8 5.1 7.3 9.4 9.3 13.8 16.7 18.6 18.4 18.5 16.6 12.8 10.1 8.4 10.5 14.1 16.5 16.9 13.0 13.0 12.8 13.5 12.9 11.1 11.7 12.2 12.3 11.8 12.2 12.1 8.3 7.2 8.7 8.5 8.9
0.2 0.0 0.0 0.0 1.2 6.3 7.2 4.8 6.2 2.0 3.7 5.0 4.8 1.9 7.2 3.1 4.6 4.9 4.4 1.9 4.5 10.2 13.0 16.1 19.1 18.1 18.0 19.9 16.9 12.5 12.0 8.7 10.7 8.8 10.7 13.9 15.6 11.1 12.4 13.2 10.6 9.2 7.4 9.3 9.8 13.8 12.0 10.3 10.3 9.0 6.7 5.8 6.2 5.7
0.3 0.0 1.9 0.7 9.0 8.9 9.6 2.2 1.9 2.7 2.9 3.6 2.9 2.1 4.6 5.4 3.5 3.6 0.8 2.9 12.2 18.8 16.8 17.4 17.3 15.9 14.3 16.1 17.6 14.8 16.3 10.6 9.9 10.0 11.1 9.2 11.7 11.0 12.2 13.0 9.1 9.1 8.1 8.5 7.3 8.8 8.8 6.8 5.8 5.7 4.9 4.0 2.6 3.5
0.5 1.0 6.6 5.6 11.0 7.2 4.5 1.1 4.6 4.7 6.8 6.1 3.6 4.2 5.4 3.9 3.6 0.1 4.4 9.1 17.3 19.6 16.3 13.5 14.7 14.9 15.2 17.2 13.0 12.4 14.5 11.3 13.4 16.3 15.6 14.0 13.1 12.6 10.6 10.2 9.2 7.9 8.1 8.8 5.9 5.4 4.4 3.5 3.0 3.7 3.6 3.3 3.2 3.4
0.8 7.5 10.2 9.7 7.6 5.2 2.0 3.3 3.4 4.2 4.1 4.0 4.9 5.0 5.7 3.8 0.1 4.6 10.2 15.4 18.4 12.1 10.5 12.4 10.5 13.1 13.0 11.8 14.0 15.1 17.9 11.9 11.8 14.0 14.7 11.1 9.6 11.6 8.4 8.1 6.4 6.1 5.8 5.3 3.5 3.3 2.8 3.0 1.7 2.2 2.4 3.6 2.9 2.9
21.2 13.7 8.0 7.3 4.9 6.2 4.6 2.0 2.3 4.5 8.3 6.1 9.1 10.0 10.9 5.4 10.7 10.2 13.2 17.8 12.2 11.1 10.8 10.5 9.8 10.0 10.6 13.2 14.9 15.5 14.4 13.7 14.3 14.2 16.6 13.0 10.8 9.4 8.5 7.0 6.1 6.2 3.8 3.6 4.9 4.6 4.1 3.2 3.2 2.4 1.5 1.2 1.3 2.6
9.3 5.1 8.6 6.6 7.2 7.8 7.9 7.0 6.9 5.3 4.8 5.2 7.2 3.2 2.4 4.6 7.0 18.3 18.5 19.1 14.0 13.7 14.2 14.4 13.9 10.4 10.8 11.8 11.3 9.1 11.5 11.4 11.3 11.1 16.8 13.6 12.9 12.9 10.9 8.9 7.5 7.8 4.3 4.2 5.1 4.7 3.7 3.4 2.9 2.5 2.7 1.6 1.6 3.0
9.0 4.1 1.4 0.7 1.6 2.3 3.1 3.0 3.0 4.5 6.2 8.7 6.4 5.2 4.9 9.7 12.4 14.6 11.9 11.6 11.8 13.6 11.9 11.9 10.3 11.1 12.0 11.2 9.8 8.7 7.5 6.5 6.9 9.8 11.5 11.3 11.6 12.8 12.8 14.0 12.8 11.7 6.8 5.5 4.3 4.6 5.3 4.4 4.1 3.7 3.4 3.7 3.0 4.2
3.9 1.7 2.7 1.9 2.5 2.2 3.6 2.8 4.7 6.0 5.3 3.7 3.7 5.9 8.0 9.3 14.3 14.3 12.6 12.3 9.9 7.8 6.3 5.7 4.9 5.5 6.2 6.5 6.7 6.0 4.9 5.9 6.2 6.0 5.2 5.5 7.8 11.1 10.9 10.2 8.2 6.9 7.5 7.3 6.9 5.4 4.9 4.9 4.7 4.9 4.4 4.1 4.2 3.8
3.4 2.3 3.0 4.7 3.4 2.9 6.2 6.3 7.2 5.1 4.2 3.9 5.3 6.6 8.8 9.5 14.4 12.7 11.5 8.7 7.4 5.6 4.9 3.9 4.5 2.1 2.0 1.3 1.5 2.7 4.2 5.1 4.9 6.3 5.7 6.6 8.4 7.9 7.4 7.5 6.5 6.9 7.1 7.9 7.2 6.8 6.5 5.2 3.9 3.9 5.2 6.5 5.1 5.2
2.2 2.1 2.7 2.2 2.7 4.6 8.6 4.0 5.5 3.4 1.4 1.5 1.1 1.5 2.9 11.0 17.7 12.1 8.4 6.3 5.4 6.1 6.0 4.9 3.8 2.5 2.6 2.2 1.9 1.7 3.6 4.2 4.7 5.9 6.0 5.5 6.9 6.2 5.9 6.0 5.7 5.0 6.2 6.8 9.2 9.0 9.2 7.9 7.4 7.6 7.0 6.3 6.7 8.8
0.8 1.3 1.4 2.1 3.6 6.7 4.4 2.7 2.5 2.0 1.3 1.1 0.6 1.5 4.3 8.0 10.8 7.3 5.3 6.3 4.2 3.0 2.6 2.9 3.1 3.4 2.7 3.2 4.7 4.4 4.6 3.1 3.2 3.9 4.1 4.9 4.4 4.5 4.4 3.7 4.8 4.9 5.4 6.4 6.3 8.5 11.1 11.6 11.0 11.2 9.5 8.0 7.0 7.5
1.1 2.0 2.0 1.7 3.5 3.5 4.1 6.1 3.6 2.4 2.3 1.8 4.0 2.8 5.8 5.7 6.3 7.3 5.0 4.8 4.1 3.0 2.9 3.9 4.1 4.5 5.1 6.3 6.7 6.7 6.2 4.7 4.1 4.3 4.0 4.0 4.7 4.8 4.2 2.9 2.9 3.5 3.7 4.6 5.1 6.9 8.6 10.9 13.6 12.3 10.6 9.8 9.7 8.6
1.6 1.8 1.9 1.9 2.5 3.3 2.2 3.7 1.6 2.6 2.8 4.1 7.0 5.0 5.3 5.2 9.7 11.2 4.3 4.6 8.6 7.1 6.8 7.6 7.5 7.3 7.9 7.6 7.8 6.4 4.3 5.0 4.4 4.1 3.8 4.0 3.7 3.7 3.4 3.3 3.5 3.8 3.7 3.8 4.6 5.6 6.1 8.2 9.5 12.6 13.6 13.7 13.7 12.2

GFSWCAN_prec_kuchsnow_243.txt.gz
Snowfall_Accumulation
0.0 0.0 0.0 0.0 0.0 0.0 0.0 0.0 0.0 0.0 0.0 0.0 0.0 0.0 0.0 0.0 0.0 0.0 0.0 0.0 0.2 16.8 5.1 0.0 0.0 1.8 4.1 5.1 17.0 8.5 12.2 12.8 20.6 37.1 26.8 19.5 11.8 1.7 4.6 2.5 2.4 3.6 14.5 21.2 21.2 31.4 19.5 0.1 0.0 1.0 0.7 0.1 0.6 3.6
0.0 0.0 0.0 0.0 0.0 0.0 0.0 0.0 0.0 0.0 0.0 0.0 0.0 0.0 0.0 0.0 0.0 0.0 0.5 0.0 0.0 11.6 10.8 0.0 0.0 0.0 0.0 0.0 3.7 8.2 12.3 8.0 7.9 24.4 15.7 13.1 16.6 11.2 2.8 10.4 2.5 9.5 4.1 10.2 8.5 10.7 1.0 0.0 0.3 0.2 0.2 0.4 1.1 3.6
0.0 0.0 0.0 0.0 0.0 0.0 0.0 0.0 0.0 0.0 0.0 0.0 0.0 0.0 0.0 0.0 0.0 0.0 0.0 0.0 0.0 17.0 7.9 2.3 4.2 0.0 0.0 0.0 0.0 12.8 3.3 1.7 6.5 5.1 11.8 8.7 16.3 4.4 10.7 6.9 6.4 2.6 0.9 4.9 2.2 0.6 0.2 0.0 0.0 0.0 0.1 0.1 0.2 1.3
0.0 0.0 0.0 0.0 0.0 0.0 0.0 0.0 0.0 0.0 0.0 0.0 0.0 0.0 0.0 0.0 0.0 0.0 0.0 0.0 1.8 8.9 25.6 7.3 0.0 2.0 0.0 0.0 0.0 0.0 0.0 0.0 0.4 0.9 12.9 13.1 12.5 1.1 2.7 1.5 4.5 5.2 4.5 5.0 2.1 0.3 0.4 0.1 0.2 0.1 0.1 0.1 0.2 0.1
0.0 0.0 0.0 0.0 0.0 0.0 0.0 0.0 0.0 0.0 0.0 0.0 0.0 0.0 0.0 0.0 0.0 0.0 0.0 0.0 0.0 3.5 15.1 7.0 0.0 0.0 0.5 0.0 0.0 0.0 0.0 0.9 2.5 8.6 15.8 11.7 1.3 3.0 2.2 2.6 5.5 1.2 8.2 9.7 8.6 1.5 2.2 0.6 0.3 0.1 0.4 0.6 0.6 0.4
0.0 0.0 0.0 0.0 0.0 0.0 0.0 0.0 0.0 0.0 0.0 0.0 0.0 0.0 0.0 0.0 0.0 0.0 35.3 0.0 0.0 0.0 11.1 16.7 0.9 1.1 2.3 0.8 0.2 0.4 0.5 1.8 1.9 5.9 6.4 1.7 0.0 2.6 9.7 6.0 0.4 0.7 3.5 4.9 8.5 2.1 2.1 1.8 0.9 0.3 1.3 2.3 2.8 1.8
0.0 0.0 0.0 0.0 0.0 0.0 0.0 0.0 0.0 0.0 0.0 0.0 0.0 0.0 0.0 0.0 0.0 13.2 7.7 0.3 0.0 0.0 22.5 16.8 9.8 0.6 1.0 1.0 1.2 3.7 1.5 4.4 3.1 4.0 4.0 1.4 1.2 1.3 4.0 1.1 0.0 0.0 0.8 2.4 3.6 5.3 6.4 6.4 9.9 4.7 1.2 1.5 1.8 0.3
0.0 0.0 0.0 0.0 0.0 0.0 0.0 0.0 0.0 0.0 0.0 0.0 0.0 0.0 0.0 0.0 0.0 2.1 0.0 0.0 0.0 1.2 7.2 20.6 13.3 9.4 0.3 5.2 7.1 1.4 7.2 4.6 5.5 4.8 2.2 1.5 1.4 2.2 7.9 0.0 0.0 0.1 0.2 0.6 0.5 0.8 3.2 4.1 3.9 3.4 1.0 0.2 0.1 0.0
0.0 0.0 0.0 0.0 0.0 0.0 0.0 0.0 0.0 0.0 0.0 0.0 0.0 0.0 0.0 0.0 19.2 0.0 0.0 0.0 0.0 1.4 20.3 10.0 8.8 20.0 0.5 3.9 2.7 3.4 2.2 17.7 3.8 11.4 4.4 2.4 4.7 8.0 0.7 0.0 0.0 0.1 0.1 0.0 0.0 0.0 0.1 0.2 0.2 0.0 0.3 0.1 0.6 0.7
0.0 0.0 0.0 0.0 0.0 0.0 0.0 0.0 0.0 0.0 0.0 0.0 0.0 24.5 50.0 1.8 0.0 0.0 3.1 12.7 15.8 12.1 7.4 8.9 0.7 9.5 1.2 2.2 11.0 9.9 8.7 9.9 15.4 4.2 1.6 7.0 2.8 0.8 0.3 0.3 0.2 0.2 0.0 0.0 0.5 1.2 1.0 0.7 0.2 0.0 0.0 0.5 0.2 0.1
0.0 0.0 0.0 0.0 0.0 0.0 0.0 0.0 0.0 0.0 0.0 0.0 20.2 16.4 0.0 0.0 0.1 5.0 30.0 20.9 12.3 14.3 1.9 1.0 0.0 1.0 0.0 5.9 10.1 3.5 13.7 6.6 15.5 3.2 4.5 7.0 5.3 4.0 1.8 1.8 0.8 0.5 0.2 0.1 0.0 0.1 0.0 0.0 1.1 0.9 0.5 0.1 0.0 0.1
0.0 0.0 0.0 0.0 0.0 0.0 0.0 0.0 0.0 0.0 0.0 0.0 0.0 0.0 0.0 4.5 16.0 24.1 21.7 10.8 2.8 2.5 2.2 1.9 3.2 4.1 1.1 0.4 9.9 11.9 12.5 11.5 9.5 1.6 12.9 9.1 6.9 2.2 1.8 3.2 1.0 0.0 0.0 0.0 0.0 0.0 0.0 0.0 0.0 0.1 0.7 0.7 0.9 3.7
0.0 0.0 0.0 0.0 0.0 0.0 0.0 0.0 0.0 0.0 0.0 0.0 4.7 12.6 14.0 17.6 29.2 18.7 11.8 6.6 4.6 1.0 0.9 0.8 8.5 2.7 3.9 1.1 11.2 14.7 22.6 11.9 1.5 25.4 15.7 9.1 3.4 4.2 3.2 0.8 0.2 0.4 0.2 0.0 0.3 0.0 0.0 0.0 0.7 1.6 2.7 6.2 5.8 6.0
0.0 0.0 0.0 0.0 0.0 0.0 0.0 0.0 0.0 0.0 0.0 6.8 15.3 24.7 17.9 14.0 9.2 6.3 3.5 2.2 0.7 0.5 0.9 2.5 5.5 5.2 1.8 9.0 9.1 18.2 11.0 9.6 19.5 15.5 12.5 10.5 6.5 4.3 3.5 2.9 2.9 2.4 1.2 1.4 0.7 0.6 1.9 1.6 3.0 4.5 4.7 7.0 6.5 7.0
0.0 0.0 0.0 0.0 0.0 0.0 0.0 0.0 0.0 0.0 5.5 15.4 7.9 12.3 9.0 7.5 4.5 3.3 2.2 1.3 1.1 1.8 4.0 8.5 7.3 3.8 8.4 14.2 6.0 6.8 15.1 16.6 13.2 17.3 13.0 10.3 7.3 5.8 6.1 5.9 6.6 8.7 9.7 9.1 11.8 13.0 12.6 10.3 8.4 11.4 11.5 10.3 8.2 9.3
0.0 0.0 0.0 0.0 0.0 0.0 0.0 0.0 1.2 3.2 8.9 7.2 7.9 9.0 6.1 4.3 7.2 5.2 4.4 3.7 1.6 2.9 5.3 8.2 12.7 12.5 13.5 9.1 10.3 11.1 12.9 18.8 16.6 10.5 7.2 3.8 3.4 3.9 5.1 6.8 8.2 9.8 11.9 12.9 13.0 14.9 17.5 19.4 19.8 20.6 19.8 17.6 17.0 14.8
0.0 0.1 0.0 0.0 0.0 0.5 1.6 3.2 2.5 12.3 8.4 5.2 11.4 7.4 8.0 9.0 7.9 6.9 6.9 6.5 4.8 8.9 13.4 10.5 17.8 13.1 6.6 8.2 9.0 8.9 16.0 13.8 8.3 7.9 5.5 5.0 6.5 7.1 7.0 6.5 7.7 8.1 11.4 13.0 13.7 14.8 16.8 18.0 17.0 15.5 17.9 21.2 18.0 17.9
0.3 0.0 0.0 0.0 0.0 3.4 5.5 1.1 7.8 6.9 8.4 7.8 11.4 12.6 7.0 8.5 9.8 9.0 7.9 8.2 8.0 6.5 5.7 13.4 5.1 5.4 7.9 9.0 14.9 15.4 13.7 10.5 6.5 7.3 8.1 8.6 8.0 8.7 7.6 6.8 8.1 8.5 10.1 13.0 12.4 14.1 14.0 12.2 11.0 13.6 13.4 14.4 13.0 14.5
0.1 0.1 0.0 0.0 0.0 4.7 11.7 5.5 1.9 8.0 9.3 7.8 8.5 7.6 6.3 10.0 12.1 10.7 10.6 9.5 6.2 4.0 7.2 6.7 8.0 6.1 10.7 12.6 16.1 13.8 10.9 9.0 11.4 12.2 13.2 13.0 11.9 10.6 10.0 9.4 8.7 11.7 11.9 13.9 12.3 11.2 12.3 11.4 9.6 9.5 10.3 10.3 9.5 11.7
0.0 0.0 0.0 0.0 0.0 14.5 14.1 7.1 0.7 2.8 6.5 6.5 5.4 6.5 6.2 11.2 10.3 8.8 7.1 5.9 5.3 7.4 9.5 9.4 13.8 16.7 18.6 18.4 18.5 16.6 12.8 10.1 8.4 10.5 14.1 16.5 16.9 13.0 13.0 12.8 13.6 12.9 11.1 11.7 12.2 12.3 11.8 12.2 12.1 8.3 7.2 8.9 8.9 9.3
0.2 0.0 0.0 0.0 1.6 6.7 7.5 4.8 6.5 2.0 3.7 5.0 4.8 1.9 7.2 3.1 4.8 5.1 4.5 2.0 4.7 10.3 13.0 16.1 19.1 18.1 18.0 19.9 16.9 12.5 12.0 8.7 10.7 8.8 10.8 13.9 15.6 11.1 12.4 13.2 10.6 9.3 7.4 9.4 9.9 13.9 12.0 10.3 10.3 9.0 6.7 5.8 6.2 6.2
0.3 0.0 1.9 0.8 9.8 9.6 10.2 2.2 1.9 2.8 3.2 3.6 3.0 2.1 4.8 5.7 3.5 4.0 1.0 3.2 12.4 18.8 16.8 17.4 17.3 15.9 14.3 16.1 17.6 14.8 16.3 10.6 9.9 10.0 11.1 9.2 11.7 11.0 12.2 13.2 9.1 9.1 8.1 8.5 7.4 9.1 8.8 6.8 5.8 5.7 4.9 4.0 2.6 3.5
0.5 1.1 6.9 5.9 11.7 7.9 4.5 1.1 4.7 4.7 6.8 6.1 3.6 4.2 5.4 4.1 3.9 0.1 5.1 9.3 17.3 19.6 16.3 13.5 14.7 14.9 15.2 17.2 13.0 12.4 14.5 11.3 13.5 16.3 15.6 14.0 13.1 12.6 10.6 10.7 9.2 7.9 8.1 8.8 5.9 5.7 4.7 3.6 3.1 3.7 3.6 3.3 3.2 3.4
0.8 8.2 11.2 10.2 7.9 5.2 2.0 3.3 3.5 4.2 4.1 4.0 4.9 5.0 5.7 3.8 0.1 4.8 10.4 15.4 18.4 12.1 10.5 12.4 10.5 13.1 13.0 11.8 14.2 15.1 17.9 11.9 12.0 14.0 14.7 11.1 9.6 11.6 8.6 8.5 6.4 6.1 5.9 5.4 3.6 3.5 3.1 3.0 1.9 2.2 2.4 3.6 2.9 2.9
23.3 13.7 8.4 7.8 5.2 6.2 4.6 2.0 2.3 4.7 8.3 6.3 9.4 10.0 11.6 5.4 10.7 10.5 13.3 17.9 12.2 11.1 10.8 10.5 9.8 10.0 10.6 13.4 14.9 15.5 14.4 13.7 14.4 14.4 16.6 13.0 10.8 9.4 8.5 7.0 6.4 6.2 3.8 3.6 4.9 4.7 4.2 3.2 3.2 2.4 1.5 1.2 1.3 2.7
11.1 5.5 8.9 6.6 7.2 7.8 8.2 7.0 6.9 5.3 4.8 5.2 7.2 3.8 3.1 5.4 7.6 18.6 18.8 19.1 14.0 13.7 14.2 14.4 13.9 10.4 10.9 11.9 11.5 9.3 11.5 11.4 11.3 11.4 16.8 13.6 12.9 12.9 10.9 8.9 7.5 7.8 4.3 4.3 5.2 4.8 3.9 3.6 3.2 3.0 3.2 1.7 1.6 3.0
9.7 4.5 1.4 0.7 1.6 2.6 3.5 3.4 3.4 4.9 6.6 8.7 6.4 5.2 4.9 10.0 12.7 14.9 11.9 11.7 11.9 13.6 11.9 11.9 10.3 11.3 12.0 11.2 9.8 8.7 7.5 6.5 6.9 9.8 11.5 11.3 11.6 12.8 12.8 14.0 12.9 11.7 6.8 5.5 4.5 4.8 5.5 4.6 4.3 4.0 4.1 3.7 3.3 4.3
3.9 1.7 2.7 1.9 2.5 2.2 3.6 3.1 5.1 6.0 5.3 4.0 4.4 6.6 8.3 9.3 14.6 14.4 12.6 12.3 9.9 7.8 6.3 5.7 4.9 5.5 6.2 6.5 6.7 6.0 4.9 5.9 6.2 6.0 5.2 6.0 7.8 11.1 10.9 10.2 8.2 6.9 7.5 7.3 6.9 5.4 5.1 5.0 4.8 5.1 4.8 4.8 4.7 3.9
3.5 2.3 3.0 4.7 3.4 3.3 6.7 6.8 7.4 5.1 4.2 3.9 5.3 6.9 8.8 9.5 14.4 12.8 11.5 8.7 7.4 5.6 4.9 3.9 4.5 2.1 2.0 1.3 1.5 2.7 4.2 5.1 4.9 6.3 5.7 7.1 8.4 7.9 7.4 7.5 6.5 6.9 7.1 7.9 7.2 6.8 6.7 5.2 4.2 4.3 5.4 7.0 5.8 5.5
2.2 2.1 2.7 3.4 3.4 4.8 8.8 4.0 5.5 3.4 1.4 1.5 1.1 1.5 2.9 11.0 17.7 12.1 8.4 6.3 5.4 6.1 6.0 4.9 3.8 2.5 2.6 2.2 1.9 1.7 3.6 4.2 4.7 5.9 6.0 5.5 6.9 6.2 5.9 6.0 5.7 5.0 6.2 6.8 9.2 9.0 9.2 7.9 7.4 7.6 7.5 6.9 7.2 9.1
0.8 1.3 1.4 3.1 3.8 6.8 4.5 2.7 2.5 2.0 1.3 1.1 0.6 1.5 4.3 8.0 10.8 7.3 5.3 6.5 4.3 3.0 2.6 2.9 3.1 3.4 2.7 3.2 4.7 4.5 4.6 3.1 3.2 3.9 4.1 4.9 4.4 4.5 4.4 3.7 4.8 4.9 5.4 6.4 6.3 8.6 11.1 11.6 11.0 11.2 10.0 8.5 7.7 7.9
1.1 2.9 2.6 1.7 3.5 3.5 4.1 6.1 3.6 2.4 2.3 1.8 4.0 2.8 5.8 5.7 6.3 7.3 5.2 4.8 4.1 3.0 2.9 3.9 4.1 4.5 5.1 6.3 6.7 6.7 6.2 4.7 4.1 4.3 4.0 4.0 4.7 4.8 4.2 2.9 2.9 3.5 3.7 4.6 5.1 6.9 8.6 10.9 13.6 12.3 10.6 10.4 10.5 9.4
2.1 2.3 1.9 1.9 2.5 3.3 2.2 3.9 1.6 2.7 2.8 4.4 7.0 5.0 5.3 5.2 9.9 11.3 4.3 4.6 8.6 7.1 6.8 7.6 7.5 7.3 7.9 7.6 7.8 6.4 4.3 5.0 4.4 4.1 3.8 4.0 3.7 3.7 3.4 3.3 3.5 3.8 3.7 3.8 4.6 5.6 6.1 8.2 9.5 12.6 13.6 13.7 14.4 13.5

GFSWCAN_prec_kuchsnow_246.txt.gz
Snowfall_Accumulation
0.0 0.0 0.0 0.0 0.0 0.0 0.0 0.0 0.0 0.0 0.0 0.0 0.0 0.0 0.0 0.0 0.0 0.0 0.0 0.0 0.2 17.3 5.1 0.0 0.0 1.8 4.1 5.1 17.2 8.5 12.4 12.8 20.6 37.7 27.5 20.1 11.8 2.5 4.9 2.5 2.4 3.6 14.5 21.2 21.9 32.0 19.7 0.1 0.0 1.0 0.7 0.1 0.6 3.6
0.0 0.0 0.0 0.0 0.0 0.0 0.0 0.0 0.0 0.0 0.0 0.0 0.0 0.0 0.0 0.0 0.0 0.0 0.5 0.0 0.0 12.0 10.8 0.0 0.0 0.0 0.0 0.0 3.8 8.4 12.5 8.0 7.9 24.4 15.7 13.1 16.6 11.2 2.8 10.4 2.6 9.5 4.8 10.9 8.9 10.7 1.0 0.0 0.3 0.2 0.2 0.4 1.1 3.6
0.0 0.0 0.0 0.0 0.0 0.0 0.0 0.0 0.0 0.0 0.0 0.0 0.0 0.0 0.0 0.0 0.0 0.0 0.0 0.0 0.0 17.0 7.9 2.3 4.2 0.0 0.0 0.0 0.0 12.8 3.3 1.7 6.5 5.2 12.5 9.0 16.5 4.4 10.8 6.9 6.4 2.7 0.9 6.1 2.9 0.6 0.2 0.1 0.0 0.0 0.1 0.1 0.2 1.3
0.0 0.0 0.0 0.0 0.0 0.0 0.0 0.0 0.0 0.0 0.0 0.0 0.0 0.0 0.0 0.0 0.0 0.0 0.0 0.0 1.8 9.2 26.1 7.3 0.0 2.0 0.0 0.0 0.0 0.0 0.0 0.0 0.4 0.9 15.1 14.4 13.1 1.1 2.7 1.5 4.5 5.2 4.5 5.0 2.1 0.3 0.4 0.1 0.2 0.1 0.1 0.1 0.2 0.1
0.0 0.0 0.0 0.0 0.0 0.0 0.0 0.0 0.0 0.0 0.0 0.0 0.0 0.0 0.0 0.0 0.0 0.0 0.0 0.0 0.0 3.7 15.1 7.0 0.0 0.0 0.5 0.0 0.0 0.0 0.0 0.9 2.8 10.6 17.5 12.1 1.3 3.0 2.2 2.6 5.5 1.2 8.2 9.7 8.6 1.5 2.2 0.6 0.3 0.1 0.4 0.6 0.6 0.4
0.0 0.0 0.0 0.0 0.0 0.0 0.0 0.0 0.0 0.0 0.0 0.0 0.0 0.0 0.0 0.0 0.0 0.0 35.3 0.0 0.0 0.0 11.6 16.7 0.9 1.1 2.3 0.8 0.2 0.4 0.5 1.8 2.2 6.9 7.1 1.9 0.0 2.6 9.9 6.0 0.4 0.7 3.5 4.9 8.5 2.1 2.1 1.8 0.9 0.3 1.3 2.3 2.8 1.8
0.0 0.0 0.0 0.0 0.0 0.0 0.0 0.0 0.0 0.0 0.0 0.0 0.0 0.0 0.0 0.0 0.0 13.2 7.7 0.3 0.0 0.0 23.3 17.2 9.8 0.6 1.0 1.0 1.2 3.7 1.5 4.4 3.1 4.3 4.2 1.4 1.2 1.4 4.2 1.1 0.0 0.0 0.8 2.4 3.6 5.3 6.4 6.4 9.9 4.7 1.2 1.5 1.8 0.3
0.0 0.0 0.0 0.0 0.0 0.0 0.0 0.0 0.0 0.0 0.0 0.0 0.0 0.0 0.0 0.0 0.0 2.1 0.0 0.0 0.0 1.2 7.5 20.8 13.3 9.4 0.3 5.2 7.1 1.4 7.2 4.6 5.6 4.9 2.3 1.5 1.4 2.2 8.0 0.0 0.0 0.1 0.2 0.6 0.5 0.8 3.2 4.1 3.9 3.4 1.0 0.2 0.1 0.0
0.0 0.0 0.0 0.0 0.0 0.0 0.0 0.0 0.0 0.0 0.0 0.0 0.0 0.0 0.0 0.0 19.2 0.0 0.0 0.0 0.0 1.4 20.5 10.0 8.8 20.0 0.5 4.1 2.7 3.9 2.2 18.0 3.8 11.4 4.4 2.4 4.7 8.2 0.7 0.0 0.1 0.1 0.1 0.0 0.0 0.0 0.1 0.2 0.2 0.0 0.3 0.1 0.6 0.7
0.0 0.0 0.0 0.0 0.0 0.0 0.0 0.0 0.0 0.0 0.0 0.0 0.0 24.5 50.0 1.8 0.0 0.0 3.1 12.8 16.4 12.6 7.9 9.1 0.7 9.5 1.2 2.2 11.0 9.9 10.2 11.0 16.0 4.2 1.6 7.0 2.8 0.8 0.3 0.3 0.2 0.2 0.0 0.0 0.5 1.2 1.0 0.7 0.2 0.0 0.0 0.5 0.2 0.1
0.0 0.0 0.0 0.0 0.0 0.0 0.0 0.0 0.0 0.0 0.0 0.0 20.2 16.4 0.0 0.0 0.1 5.0 30.1 21.3 12.3 14.7 2.2 1.1 0.0 1.0 0.0 5.9 10.1 3.5 13.7 6.6 15.8 3.2 4.5 7.2 5.7 4.9 2.6 2.4 1.4 0.7 0.2 0.1 0.0 0.1 0.0 0.0 1.1 0.9 0.5 0.1 0.0 0.1
0.0 0.0 0.0 0.0 0.0 0.0 0.0 0.0 0.0 0.0 0.0 0.0 0.0 0.0 0.0 4.5 16.0 24.1 21.7 10.8 2.9 2.5 2.2 1.9 3.2 4.1 1.1 0.4 10.6 11.9 12.9 11.5 9.5 1.6 13.2 9.1 7.2 2.2 1.8 3.2 1.0 0.0 0.0 0.0 0.0 0.0 0.0 0.0 0.0 0.1 0.7 0.7 0.9 3.7
0.0 0.0 0.0 0.0 0.0 0.0 0.0 0.0 0.0 0.0 0.0 0.0 4.7 12.6 14.0 17.6 29.2 18.8 11.8 6.6 4.6 1.0 0.9 0.8 8.8 2.7 4.1 1.2 12.3 14.7 23.6 12.1 1.5 25.5 15.7 9.1 3.4 4.2 3.2 0.8 0.2 0.4 0.2 0.0 0.3 0.0 0.0 0.0 0.7 1.6 2.7 6.2 5.8 6.0
0.0 0.0 0.0 0.0 0.0 0.0 0.0 0.0 0.0 0.0 0.0 6.9 15.6 25.0 18.0 14.0 9.2 6.3 3.5 2.2 0.7 0.5 0.9 2.5 5.5 6.4 2.2 9.3 9.1 18.2 11.0 9.6 19.5 15.5 12.5 10.5 6.5 4.3 3.5 2.9 2.9 2.4 1.2 1.4 0.7 0.6 1.9 1.6 3.0 4.5 4.7 7.0 6.5 7.0
0.0 0.0 0.0 0.0 0.0 0.0 0.0 0.0 0.0 0.0 5.5 15.4 7.9 12.4 9.0 7.5 4.5 3.3 2.2 1.3 1.1 1.8 4.1 8.5 7.4 3.9 8.4 14.2 6.1 6.8 15.1 16.6 13.2 17.3 13.0 10.3 7.3 5.8 6.1 5.9 6.6 8.7 9.7 9.1 11.8 13.0 12.6 10.3 8.4 11.4 11.5 10.3 8.2 9.3
0.0 0.0 0.0 0.0 0.0 0.0 0.0 0.0 1.2 3.2 8.9 7.2 7.9 9.0 6.1 4.3 7.2 5.2 4.4 3.7 1.6 2.9 5.4 8.2 12.7 12.5 13.6 9.2 10.3 11.1 12.9 18.8 16.6 10.5 7.2 3.8 3.4 3.9 5.1 6.8 8.2 9.8 11.9 12.9 13.0 14.9 17.5 19.4 19.8 20.6 19.8 17.6 17.0 14.8
0.0 0.3 0.0 0.0 0.0 0.5 1.6 3.2 2.5 13.1 8.4 5.3 11.4 7.4 8.0 9.0 7.9 6.9 6.9 6.5 4.8 9.0 13.6 10.9 18.1 13.1 6.6 8.4 9.1 8.9 16.0 13.8 8.3 7.9 5.5 5.0 6.5 7.1 7.0 6.5 7.7 8.1 11.4 13.0 13.7 14.8 16.8 18.0 17.0 15.5 17.9 21.2 18.0 17.9
0.3 0.0 0.0 0.0 0.0 3.4 5.5 1.1 8.0 7.0 8.7 7.8 11.4 12.6 7.0 8.5 9.8 9.0 7.9 8.2 8.0 6.5 5.7 14.3 5.6 5.7 7.9 9.3 14.9 15.4 13.7 10.8 6.7 7.3 8.1 8.6 8.0 8.7 7.6 6.8 8.1 8.5 10.1 13.0 12.4 14.1 14.0 12.2 11.0 13.6 13.4 14.4 13.0 14.5
0.4 0.2 0.0 0.0 0.0 4.7 11.7 5.5 1.9 8.0 9.3 7.8 8.5 7.6 6.3 10.0 12.1 10.7 10.6 9.5 6.2 4.0 7.8 7.3 8.3 6.1 10.7 12.6 16.1 13.8 10.9 9.0 11.4 12.2 13.2 13.0 11.9 10.6 10.0 9.4 8.7 11.7 11.9 13.9 12.3 11.2 12.3 11.4 9.6 9.6 10.3 10.3 9.5 11.7
0.0 0.2 0.0 0.0 0.0 14.5 14.1 7.1 0.7 3.0 6.5 6.5 5.4 6.5 6.2 11.2 10.3 8.8 7.1 5.9 5.3 7.9 10.4 10.1 13.8 16.7 18.6 18.4 18.5 16.6 12.8 10.1 8.4 10.5 14.1 16.5 16.9 13.0 13.0 12.8 13.6 12.9 11.2 11.7 12.2 12.3 11.8 12.2 12.1 8.3 7.2 8.9 8.9 9.4
0.3 0.0 0.0 0.0 1.7 7.1 7.5 4.8 6.7 2.0 3.7 5.0 4.8 1.9 7.2 3.1 4.8 5.1 4.5 2.0 4.7 10.9 13.5 16.1 19.1 18.1 18.0 19.9 16.9 12.5 12.0 8.7 10.7 8.8 10.8 13.9 15.6 11.1 12.4 13.2 10.6 9.5 7.4 9.4 9.9 13.9 12.0 10.3 10.4 9.0 6.7 5.8 6.2 6.2
0.4 0.0 1.9 0.8 10.0 9.9 10.5 2.2 1.9 2.8 3.2 3.6 3.0 2.1 4.8 5.7 3.5 4.0 1.0 4.0 12.4 18.8 16.8 17.4 17.3 15.9 14.3 16.1 17.6 14.8 16.3 10.6 9.9 10.0 11.1 9.2 11.7 11.0 12.2 13.3 9.1 9.1 8.1 8.5 7.4 9.3 8.9 6.9 5.9 5.7 4.9 4.0 2.6 3.5
0.6 1.1 6.9 5.9 12.1 8.3 4.5 1.1 4.7 4.7 6.8 6.1 3.6 4.2 5.4 4.1 3.9 0.1 5.8 10.1 17.5 19.6 16.3 13.5 14.7 14.9 15.2 17.2 13.0 12.4 14.5 11.3 13.5 16.3 15.6 14.0 13.1 12.6 10.6 11.0 9.2 7.9 8.1 8.8 6.0 5.8 4.8 3.6 3.1 3.7 3.6 3.3 3.2 3.4
0.9 8.3 11.5 10.2 7.9 5.2 2.0 3.3 3.6 4.4 4.1 4.0 4.9 5.0 5.7 3.8 0.1 5.2 10.6 15.4 18.4 12.1 10.5 12.4 10.5 13.1 13.0 11.8 14.2 15.1 17.9 11.9 12.0 14.0 14.7 11.1 9.6 11.6 8.6 8.7 6.4 6.1 5.9 5.4 3.6 3.5 3.1 3.0 1.9 2.2 2.4 3.6 2.9 3.0
24.2 14.3 8.4 7.8 5.4 6.3 4.6 2.0 2.3 4.7 8.3 6.3 9.6 10.3 11.8 5.6 11.0 10.8 13.5 17.9 12.2 11.1 10.8 10.5 9.8 10.0 10.6 13.4 14.9 15.5 14.4 13.7 14.4 14.4 16.6 13.0 10.8 9.4 8.5 7.0 6.4 6.2 3.8 3.6 4.9 4.7 4.2 3.2 3.2 2.4 1.5 1.2 1.4 2.8
11.8 5.5 9.1 6.6 7.2 7.8 8.2 7.0 6.9 5.3 4.8 5.2 7.2 3.8 3.1 6.3 8.7 18.6 18.8 19.1 14.0 13.7 14.2 14.4 13.9 10.4 11.1 11.9 11.5 9.3 11.5 11.4 11.3 11.4 16.8 13.6 12.9 12.9 10.9 8.9 7.5 7.8 4.3 4.3 5.4 4.9 3.9 3.6 3.2 3.0 3.2 1.7 1.6 3.2
10.3 4.5 1.4 0.7 1.6 2.6 3.5 3.4 3.4 4.9 6.6 8.8 6.4 5.2 5.2 10.8 13.7 14.9 12.0 11.9 11.9 13.6 11.9 11.9 10.3 11.3 12.0 11.2 9.8 8.7 7.5 6.5 6.9 9.8 11.5 11.3 11.6 12.8 12.8 14.0 12.9 11.7 6.8 5.5 4.5 4.8 5.7 4.7 4.3 4.0 4.1 3.7 3.3 4.3
3.9 1.7 2.7 1.9 2.5 2.2 3.6 3.1 5.1 7.1 6.0 4.5 4.8 7.2 9.1 9.3 14.6 14.4 12.6 12.3 9.9 7.8 6.3 5.7 4.9 5.5 6.2 6.5 6.7 6.0 4.9 5.9 6.2 6.1 5.5 6.0 7.8 11.1 10.9 10.2 8.2 6.9 7.5 7.3 6.9 5.4 5.1 5.2 4.8 5.1 4.9 4.8 4.7 3.9
3.5 2.3 3.0 4.7 3.4 3.3 6.7 6.8 7.4 5.1 4.2 4.0 5.3 6.9 8.8 9.7 14.5 12.8 11.5 8.7 7.4 5.6 4.9 3.9 4.5 2.1 2.0 1.3 1.5 2.7 4.2 5.1 4.9 6.3 5.7 7.1 8.4 7.9 7.4 7.5 6.5 6.9 7.1 7.9 7.2 6.8 6.7 5.2 4.2 4.3 5.4 7.3 5.8 5.5
2.2 2.1 2.7 3.4 3.4 4.8 8.8 4.0 5.5 3.8 1.5 1.5 1.1 1.5 2.9 11.0 17.8 12.1 8.4 6.3 5.4 6.1 6.0 4.9 3.8 2.5 2.6 2.2 1.9 1.7 3.6 4.2 4.7 5.9 6.0 5.5 6.9 6.2 5.9 6.0 5.7 5.0 6.2 6.8 9.2 9.0 9.2 7.9 7.4 7.6 7.5 6.9 7.2 9.1
0.8 1.3 1.4 3.1 5.0 6.8 4.5 2.9 2.5 2.0 1.3 1.1 0.6 1.5 4.3 8.0 10.9 7.3 5.3 6.5 4.3 3.0 2.6 2.9 3.1 3.4 2.7 3.2 4.7 4.5 4.6 3.1 3.2 3.9 4.1 4.9 4.4 4.5 4.4 3.7 4.8 4.9 5.4 6.4 6.3 8.6 11.1 11.6 11.0 11.2 10.0 8.5 7.7 8.5
1.1 2.9 2.6 1.7 3.5 3.5 4.4 6.2 3.6 2.4 2.3 1.8 4.0 2.8 5.8 5.7 6.3 7.3 5.3 4.8 4.1 3.1 2.9 3.9 4.1 4.5 5.1 6.3 6.7 6.7 6.2 4.7 4.1 4.3 4.0 4.0 4.7 4.8 4.2 2.9 2.9 3.5 3.7 4.6 5.1 6.9 8.6 10.9 13.6 12.3 10.6 10.4 10.5 9.4
2.1 2.3 1.9 2.5 2.8 3.6 2.4 3.9 1.6 2.7 2.8 4.4 7.0 5.0 5.3 5.2 9.9 11.3 4.5 4.6 8.6 7.1 6.8 7.6 7.5 7.3 7.9 7.6 7.8 6.4 4.3 5.0 4.4 4.1 3.8 4.0 3.7 3.7 3.4 3.3 3.5 3.8 3.7 3.8 4.6 5.6 6.1 8.2 9.5 12.6 13.6 13.7 14.4 13.5

GFSWCAN_prec_kuchsnow_249.txt.gz
Snowfall_Accumulation
0.0 0.0 0.0 0.0 0.0 0.0 0.0 0.0 0.0 0.0 0.0 0.0 0.0 0.0 0.0 0.0 0.0 0.0 0.0 0.0 0.2 17.4 5.1 0.0 0.0 1.8 4.1 5.3 17.4 8.5 12.4 12.9 20.8 38.1 27.8 20.8 12.3 3.7 4.9 2.5 2.4 3.6 14.5 21.2 21.9 32.2 19.8 0.1 0.0 1.2 0.7 0.1 0.6 3.6
0.0 0.0 0.0 0.0 0.0 0.0 0.0 0.0 0.0 0.0 0.0 0.0 0.0 0.0 0.0 0.0 0.0 0.0 0.5 0.0 0.0 12.3 11.0 0.0 0.0 0.0 0.0 0.0 3.8 8.4 12.5 8.0 7.9 24.4 15.7 13.1 16.6 11.2 2.8 10.4 2.7 9.6 5.3 11.3 9.3 10.8 1.0 0.0 0.3 0.2 0.2 0.4 1.1 3.6
0.0 0.0 0.0 0.0 0.0 0.0 0.0 0.0 0.0 0.0 0.0 0.0 0.0 0.0 0.0 0.0 0.0 0.0 0.0 0.0 0.0 17.1 7.9 2.3 4.2 0.0 0.0 0.0 0.0 12.8 3.3 1.7 6.5 5.2 12.5 9.4 16.7 4.4 10.8 6.9 6.5 2.8 1.1 6.3 3.0 0.6 0.2 0.1 0.0 0.0 0.1 0.1 0.2 1.3
0.0 0.0 0.0 0.0 0.0 0.0 0.0 0.0 0.0 0.0 0.0 0.0 0.0 0.0 0.0 0.0 0.0 0.0 0.0 0.0 1.8 9.2 26.3 7.3 0.0 2.0 0.0 0.0 0.0 0.0 0.0 0.0 0.4 0.9 15.8 15.1 13.3 1.1 2.7 1.5 4.5 5.2 4.5 5.0 2.1 0.3 0.4 0.1 0.2 0.1 0.1 0.1 0.2 0.1
0.0 0.0 0.0 0.0 0.0 0.0 0.0 0.0 0.0 0.0 0.0 0.0 0.0 0.0 0.0 0.0 0.0 0.0 0.0 0.0 0.0 3.7 15.1 7.0 0.0 0.0 0.5 0.0 0.0 0.0 0.0 0.9 2.8 11.3 18.5 12.6 1.3 3.3 2.4 2.6 5.5 1.2 8.2 9.7 8.6 1.5 2.2 0.6 0.3 0.1 0.4 0.6 0.6 0.4
0.0 0.0 0.0 0.0 0.0 0.0 0.0 0.0 0.0 0.0 0.0 0.0 0.0 0.0 0.0 0.0 0.0 0.0 35.3 0.0 0.0 0.0 12.0 16.7 0.9 1.1 2.3 0.8 0.2 0.4 0.5 1.8 2.5 7.8 7.6 2.0 0.0 2.9 10.4 6.1 0.4 0.7 3.5 4.9 8.5 2.1 2.1 1.8 0.9 0.3 1.3 2.3 2.8 1.8
0.0 0.0 0.0 0.0 0.0 0.0 0.0 0.0 0.0 0.0 0.0 0.0 0.0 0.0 0.0 0.0 0.0 13.2 7.7 0.3 0.0 0.0 23.7 17.2 9.8 0.6 1.0 1.0 1.2 3.7 1.5 4.4 3.2 4.6 4.6 1.5 1.3 1.8 4.6 1.1 0.0 0.0 0.8 2.4 3.6 5.3 6.4 6.4 9.9 4.7 1.2 1.5 1.8 0.3
0.0 0.0 0.0 0.0 0.0 0.0 0.0 0.0 0.0 0.0 0.0 0.0 0.0 0.0 0.0 0.0 0.0 2.1 0.0 0.0 0.0 1.2 7.5 20.8 13.3 9.4 0.3 5.2 7.1 1.4 7.2 4.8 5.9 4.9 2.4 1.6 1.4 2.2 8.2 0.0 0.0 0.1 0.2 0.6 0.5 0.8 3.2 4.1 3.9 3.4 1.0 0.2 0.1 0.0
0.0 0.0 0.0 0.0 0.0 0.0 0.0 0.0 0.0 0.0 0.0 0.0 0.0 0.0 0.0 0.0 19.2 0.0 0.0 0.0 0.0 1.4 20.5 10.2 8.8 20.0 0.5 4.1 2.7 3.9 2.2 18.9 4.1 11.6 4.4 2.4 4.7 8.3 0.7 0.0 0.1 0.1 0.1 0.0 0.0 0.0 0.2 0.2 0.2 0.0 0.3 0.1 0.6 0.7
0.0 0.0 0.0 0.0 0.0 0.0 0.0 0.0 0.0 0.0 0.0 0.0 0.0 24.5 50.0 1.8 0.0 0.0 3.1 13.2 17.0 13.0 8.1 9.2 0.7 9.5 1.2 2.2 11.0 9.9 10.2 11.0 16.6 4.2 1.6 7.1 2.8 0.8 0.3 0.3 0.2 0.2 0.1 0.0 0.5 1.2 1.0 0.7 0.2 0.0 0.0 0.5 0.2 0.1
0.0 0.0 0.0 0.0 0.0 0.0 0.0 0.0 0.0 0.0 0.0 0.0 20.2 16.4 0.0 0.0 0.1 5.0 30.3 21.6 12.6 15.3 2.4 1.1 0.0 1.0 0.0 5.9 10.1 3.5 13.7 6.6 16.0 3.2 4.5 7.4 5.7 4.9 2.6 2.4 1.4 0.7 0.2 0.1 0.0 0.1 0.0 0.0 1.1 0.9 0.5 0.1 0.0 0.1
0.0 0.0 0.0 0.0 0.0 0.0 0.0 0.0 0.0 0.0 0.0 0.0 0.0 0.0 0.0 4.5 16.1 24.2 21.7 10.8 3.0 2.5 2.2 1.9 3.2 4.5 1.2 0.4 10.7 11.9 12.9 11.5 9.5 1.6 13.5 9.2 7.2 2.2 1.8 3.2 1.0 0.0 0.0 0.0 0.0 0.0 0.0 0.0 0.0 0.1 0.7 0.7 0.9 3.7
0.0 0.0 0.0 0.0 0.0 0.0 0.0 0.0 0.0 0.0 0.0 0.0 4.7 12.7 14.0 17.6 29.4 18.9 11.8 6.6 4.6 1.0 0.9 0.8 9.1 2.8 4.1 1.8 13.7 15.7 25.4 12.8 1.6 25.7 15.7 9.1 3.4 4.2 3.2 0.8 0.2 0.4 0.2 0.0 0.3 0.0 0.0 0.0 0.7 1.6 2.7 6.2 5.8 6.0
0.0 0.0 0.0 0.0 0.0 0.0 0.0 0.0 0.0 0.0 0.1 7.0 15.8 25.0 18.1 14.0 9.2 6.3 3.5 2.2 0.7 0.5 0.9 2.5 5.5 6.6 2.2 9.3 10.1 18.6 11.0 9.6 19.5 15.5 12.5 10.5 6.5 4.3 3.5 2.9 2.9 2.4 1.2 1.4 0.7 0.6 1.9 1.6 3.0 4.5 4.7 7.0 6.5 7.0
0.0 0.0 0.0 0.0 0.0 0.0 0.0 0.0 0.0 0.0 5.7 15.5 8.1 12.6 9.0 7.5 4.5 3.3 2.2 1.3 1.1 1.8 4.1 8.5 7.4 3.9 8.4 14.2 6.1 7.0 15.2 16.6 13.2 17.3 13.0 10.3 7.3 5.8 6.1 5.9 6.6 8.7 9.7 9.1 11.8 13.0 12.6 10.3 8.4 11.4 11.5 10.3 8.2 9.3
0.0 0.0 0.0 0.0 0.0 0.0 0.0 0.0 1.2 3.2 9.2 7.2 8.0 9.1 6.1 4.3 7.2 5.2 4.4 3.7 1.6 2.9 5.4 8.2 12.7 12.5 13.6 9.3 10.4 11.1 13.0 18.8 16.6 10.5 7.2 3.8 3.4 3.9 5.1 6.8 8.2 9.8 11.9 12.9 13.0 14.9 17.5 19.4 19.8 20.6 19.8 17.6 17.0 14.8
0.0 0.4 0.0 0.0 0.0 0.5 1.6 3.2 2.5 14.6 9.3 5.5 11.4 7.4 8.0 9.0 7.9 6.9 6.9 6.5 4.8 9.0 13.6 10.9 18.5 13.2 6.6 8.4 9.2 8.9 16.0 13.8 8.3 7.9 5.5 5.0 6.5 7.1 7.0 6.5 7.7 8.1 11.4 13.0 13.7 14.8 16.8 18.0 17.0 15.5 17.9 21.2 18.0 17.9
0.4 0.0 0.0 0.0 0.0 3.4 5.5 1.1 8.0 7.2 9.2 7.9 11.4 12.6 7.0 8.5 9.8 9.0 7.9 8.2 8.0 6.5 5.7 14.5 5.6 6.3 8.4 9.5 14.9 15.4 13.7 10.9 6.7 7.3 8.3 8.6 8.0 8.7 7.6 6.8 8.1 8.5 10.1 13.0 12.4 14.1 14.0 12.3 11.0 13.6 13.4 14.4 13.0 14.5
0.4 0.2 0.0 0.0 0.0 4.7 11.7 5.5 2.0 8.0 9.3 7.8 8.5 7.6 6.3 10.0 12.1 10.7 10.6 9.5 6.2 4.0 8.1 7.3 9.0 6.1 10.7 12.6 16.1 13.8 10.9 9.0 11.4 12.2 13.2 13.0 11.9 10.6 10.0 9.4 8.7 11.7 11.9 13.9 12.3 11.2 12.3 11.4 9.7 9.6 10.3 10.3 9.5 11.7
0.0 0.2 0.0 0.3 0.3 14.5 14.1 7.1 0.7 3.0 6.6 6.5 5.4 6.5 6.2 11.2 10.3 8.8 7.1 5.9 5.3 7.9 10.8 10.6 13.8 16.7 18.6 18.4 18.5 16.6 12.8 10.1 8.4 10.5 14.1 16.5 16.9 13.0 13.0 12.8 13.6 12.9 11.2 11.7 12.2 12.3 11.8 12.2 12.1 8.3 7.3 9.0 9.0 9.4
0.3 0.0 0.0 0.6 2.2 7.2 7.5 4.8 6.7 2.0 3.7 5.0 4.8 1.9 7.2 3.1 4.8 5.1 4.5 2.0 4.7 10.9 13.5 16.1 19.1 18.1 18.0 19.9 16.9 12.5 12.0 8.7 10.7 8.8 10.8 13.9 15.6 11.1 12.4 13.2 10.6 9.5 7.4 9.4 9.9 13.9 12.0 10.4 10.4 9.0 6.8 5.8 6.3 6.3
0.4 0.1 2.1 1.1 10.3 10.0 10.8 2.2 1.9 2.8 3.2 3.6 3.0 2.1 4.8 5.7 3.5 4.0 1.0 4.0 12.4 18.8 16.8 17.4 17.3 15.9 14.3 16.1 17.6 14.8 16.3 10.6 9.9 10.0 11.1 9.2 11.7 11.0 12.2 13.3 9.1 9.1 8.1 8.5 7.4 9.3 8.9 6.9 6.0 5.7 5.0 4.0 2.6 3.6
0.9 1.8 7.3 5.9 12.1 8.5 4.5 1.1 4.7 4.7 6.8 6.1 3.6 4.2 5.4 4.1 3.9 0.1 6.0 10.1 17.6 19.6 16.3 13.5 14.7 14.9 15.3 17.3 13.0 12.4 14.5 11.3 13.5 16.3 15.6 14.0 13.1 12.6 10.6 11.0 9.2 7.9 8.1 8.8 6.0 5.8 4.8 3.6 3.1 3.7 3.6 3.3 3.2 3.4
1.5 9.3 12.2 10.4 7.9 5.2 2.0 3.3 3.7 4.5 4.1 4.0 4.9 5.0 5.7 3.8 0.1 5.2 10.6 15.4 18.4 12.1 10.5 12.4 10.5 13.2 13.1 11.8 14.2 15.1 17.9 11.9 12.0 14.0 14.7 11.1 9.6 11.6 8.6 8.7 6.4 6.1 5.9 5.4 3.6 3.5 3.1 3.0 1.9 2.2 2.4 3.6 2.9 3.0
27.5 15.9 8.8 8.1 5.5 6.3 4.6 2.0 2.3 4.7 8.3 6.3 9.6 10.3 11.8 5.6 11.7 11.6 13.6 17.9 12.2 11.1 10.8 10.5 9.8 10.2 10.6 13.4 14.9 15.5 14.4 13.7 14.4 14.4 16.6 13.0 10.8 9.4 8.5 7.0 6.4 6.2 3.8 3.6 4.9 4.7 4.2 3.2 3.2 2.4 1.5 1.2 1.5 2.8
13.1 5.8 9.1 6.6 7.2 7.8 8.2 7.0 6.9 5.3 4.8 5.2 7.2 3.8 3.1 6.3 8.7 18.9 18.8 19.1 14.0 13.7 14.2 14.4 13.9 10.4 11.1 11.9 11.5 9.3 11.5 11.4 11.3 11.4 16.8 13.6 12.9 12.9 10.9 8.9 7.5 7.8 4.3 4.3 5.4 4.9 3.9 3.6 3.2 3.0 3.2 1.7 1.6 3.3
10.6 4.5 1.4 0.7 1.6 2.6 3.5 3.4 3.4 4.9 6.6 8.8 6.4 5.2 5.2 10.8 13.7 14.9 12.0 11.9 11.9 13.6 11.9 11.9 10.3 11.3 12.0 11.2 9.8 8.7 7.5 6.5 6.9 9.8 11.5 11.3 11.6 12.8 12.8 14.0 12.9 11.7 6.8 5.5 4.5 4.8 5.7 4.7 4.3 4.0 4.1 3.7 3.3 4.3
3.9 1.7 2.7 1.9 2.5 2.2 3.6 3.1 5.1 7.1 6.0 4.5 6.0 7.2 9.1 9.3 14.6 14.4 12.6 12.3 9.9 7.8 6.3 5.7 4.9 5.5 6.2 6.5 6.7 6.0 4.9 5.9 6.2 6.1 5.5 6.0 7.8 11.1 10.9 10.2 8.2 6.9 7.5 7.3 6.9 5.4 5.1 5.2 4.8 5.1 4.9 4.8 4.7 3.9
3.5 2.3 3.0 4.7 3.4 3.3 6.7 7.0 7.4 5.1 4.2 4.0 5.3 6.9 9.4 9.9 14.5 12.8 11.5 8.7 7.4 5.6 4.9 3.9 4.6 2.1 2.0 1.3 1.5 2.7 4.2 5.1 4.9 6.3 5.7 7.1 8.4 7.9 7.4 7.5 6.5 6.9 7.1 7.9 7.2 6.8 6.7 5.2 4.2 4.3 5.4 7.3 5.8 5.5
2.2 2.1 2.7 3.4 3.4 4.8 8.8 4.0 5.5 3.8 1.5 1.5 1.1 2.2 3.1 11.0 17.9 12.1 8.4 6.3 5.4 6.1 6.0 4.9 3.8 2.5 2.6 2.2 1.9 1.7 3.6 4.2 4.7 5.9 6.0 5.5 6.9 6.2 5.9 6.0 5.7 5.0 6.2 6.8 9.2 9.0 9.2 7.9 7.4 7.6 7.5 6.9 7.2 9.1
0.8 1.3 1.4 3.1 5.0 6.8 4.5 2.9 2.5 2.0 1.3 1.1 0.8 1.6 4.3 8.0 10.9 7.3 5.3 6.5 4.3 3.0 2.6 2.9 3.1 3.4 2.7 3.2 4.7 4.5 4.6 3.1 3.2 3.9 4.1 4.9 4.4 4.5 4.4 3.7 4.8 4.9 5.4 6.4 6.3 8.6 11.1 11.6 11.0 11.2 10.0 8.5 7.7 8.5
1.1 2.9 2.6 1.7 3.5 3.5 4.4 6.7 4.4 2.4 2.3 2.1 4.1 2.8 5.8 5.7 6.3 7.3 5.3 4.8 4.1 3.1 2.9 3.9 4.1 4.5 5.1 6.3 6.7 6.7 6.2 4.7 4.1 4.3 4.0 4.0 4.7 4.8 4.2 2.9 2.9 3.5 3.7 4.6 5.1 6.9 8.6 10.9 13.6 12.3 10.6 10.4 10.5 9.4
2.1 2.3 1.9 2.5 2.8 3.9 2.8 4.5 1.6 2.7 3.0 4.4 7.0 5.0 5.3 5.2 9.9 11.3 4.6 4.7 8.6 7.1 6.8 7.6 7.5 7.3 7.9 7.6 7.8 6.4 4.3 5.0 4.4 4.1 3.8 4.0 3.7 3.7 3.4 3.3 3.5 3.8 3.7 3.8 4.6 5.6 6.1 8.2 9.5 12.6 13.6 13.7 14.4 13.5

GFSWCAN_prec_kuchsnow_252.txt.gz
Snowfall_Accumulation
0.0 0.0 0.0 0.0 0.0 0.0 0.0 0.0 0.0 0.0 0.0 0.0 0.0 0.0 0.0 0.0 0.0 0.0 0.0 0.0 0.2 17.9 5.2 0.0 0.0 1.8 4.1 5.3 17.5 8.5 12.4 13.1 20.8 38.4 28.1 20.8 12.5 3.7 4.9 2.5 2.4 3.6 14.7 21.2 22.0 32.4 19.8 0.1 0.0 1.2 0.7 0.1 0.6 3.6
0.0 0.0 0.0 0.0 0.0 0.0 0.0 0.0 0.0 0.0 0.0 0.0 0.0 0.0 0.0 0.0 0.0 0.0 0.5 0.0 0.0 12.6 11.1 0.0 0.0 0.0 0.0 0.0 3.8 8.5 12.5 8.0 7.9 24.7 15.7 13.2 16.6 11.2 2.8 10.4 2.7 9.9 5.8 12.3 9.6 10.8 1.0 0.0 0.3 0.2 0.2 0.4 1.1 3.6
0.0 0.0 0.0 0.0 0.0 0.0 0.0 0.0 0.0 0.0 0.0 0.0 0.0 0.0 0.0 0.0 0.0 0.0 0.0 0.0 0.0 17.6 8.0 2.3 4.2 0.0 0.0 0.0 0.0 12.9 3.3 1.7 6.5 5.2 12.5 9.4 16.9 4.4 10.8 6.9 6.5 2.8 1.2 7.5 3.3 0.6 0.2 0.1 0.0 0.0 0.1 0.1 0.2 1.3
0.0 0.0 0.0 0.0 0.0 0.0 0.0 0.0 0.0 0.0 0.0 0.0 0.0 0.0 0.0 0.0 0.0 0.0 0.0 0.0 1.8 9.5 26.5 7.3 0.0 2.0 0.0 0.0 0.0 0.0 0.0 0.0 0.4 0.9 15.8 15.1 13.5 1.1 2.7 1.5 4.5 5.2 4.5 5.0 2.1 0.3 0.4 0.1 0.2 0.1 0.1 0.1 0.2 0.1
0.0 0.0 0.0 0.0 0.0 0.0 0.0 0.0 0.0 0.0 0.0 0.0 0.0 0.0 0.0 0.0 0.0 0.0 0.0 0.0 0.0 3.7 15.4 7.0 0.0 0.0 0.5 0.0 0.0 0.0 0.0 0.9 2.8 11.7 19.0 12.8 1.3 3.3 2.4 2.7 5.5 1.2 8.2 9.7 8.6 1.5 2.2 0.6 0.3 0.1 0.4 0.6 0.6 0.4
0.0 0.0 0.0 0.0 0.0 0.0 0.0 0.0 0.0 0.0 0.0 0.0 0.0 0.0 0.0 0.0 0.0 0.0 35.3 0.0 0.0 0.0 13.1 16.7 0.9 1.1 2.3 0.8 0.2 0.4 0.5 1.8 2.6 8.2 8.0 2.0 0.0 2.9 11.0 6.1 0.4 0.7 3.5 4.9 8.5 2.1 2.1 1.8 0.9 0.3 1.3 2.3 2.8 1.8
0.0 0.0 0.0 0.0 0.0 0.0 0.0 0.0 0.0 0.0 0.0 0.0 0.0 0.0 0.0 0.0 0.0 13.2 7.7 0.3 0.0 0.0 24.3 17.2 9.8 0.6 1.0 1.0 1.2 3.7 1.5 4.4 3.2 4.8 4.8 1.6 1.4 2.2 5.1 1.1 0.0 0.0 0.8 2.4 3.6 5.3 6.4 6.4 9.9 4.7 1.2 1.5 1.8 0.3
0.0 0.0 0.0 0.0 0.0 0.0 0.0 0.0 0.0 0.0 0.0 0.0 0.0 0.0 0.0 0.0 0.0 2.2 0.0 0.0 0.0 1.2 7.5 20.8 13.3 9.4 0.3 5.2 7.1 1.4 7.2 5.2 6.3 4.9 2.4 1.6 1.6 2.5 8.5 0.0 0.0 0.1 0.2 0.6 0.5 0.8 3.2 4.1 3.9 3.4 1.0 0.2 0.1 0.0
0.0 0.0 0.0 0.0 0.0 0.0 0.0 0.0 0.0 0.0 0.0 0.0 0.0 0.0 0.0 0.0 19.2 0.0 0.0 0.0 0.0 1.4 20.5 10.2 8.8 20.0 0.5 4.1 2.7 3.9 2.4 19.8 4.6 12.4 4.5 2.6 4.9 8.5 0.7 0.0 0.1 0.1 0.1 0.0 0.0 0.0 0.2 0.6 0.2 0.0 0.3 0.1 0.6 0.7
0.0 0.0 0.0 0.0 0.0 0.0 0.0 0.0 0.0 0.0 0.0 0.0 0.0 24.5 50.0 1.8 0.0 0.0 3.1 13.9 18.0 13.8 8.5 9.4 0.7 9.5 1.2 2.2 11.0 9.9 10.2 11.0 16.6 4.2 1.6 7.2 2.8 0.8 0.3 0.3 0.2 0.2 0.1 0.0 0.5 1.2 1.0 0.7 0.2 0.0 0.0 0.5 0.2 0.1
0.0 0.0 0.0 0.0 0.0 0.0 0.0 0.0 0.0 0.0 0.0 0.0 20.3 16.4 0.0 0.0 0.1 5.4 30.8 22.5 12.9 15.7 2.4 1.1 0.0 1.0 0.0 5.9 10.1 3.5 13.7 6.6 16.0 3.2 4.5 7.4 5.7 4.9 2.6 2.4 1.4 0.7 0.2 0.1 0.0 0.1 0.0 0.0 1.1 0.9 0.5 0.1 0.0 0.1
0.0 0.0 0.0 0.0 0.0 0.0 0.0 0.0 0.0 0.0 0.0 0.0 0.0 0.0 0.1 4.6 16.6 24.4 21.9 10.8 3.1 2.5 2.2 1.9 3.2 4.5 1.2 0.4 10.9 12.0 12.9 11.5 9.5 1.6 13.8 9.2 7.2 2.2 1.8 3.2 1.0 0.0 0.0 0.0 0.0 0.0 0.0 0.0 0.0 0.1 0.7 0.7 0.9 3.7
0.0 0.0 0.0 0.0 0.0 0.0 0.0 0.0 0.0 0.0 0.0 0.0 4.9 13.0 14.2 17.8 30.0 19.1 11.8 6.6 4.7 1.0 0.9 0.8 9.1 3.2 4.2 2.4 14.7 15.7 26.2 12.8 1.6 26.1 15.7 9.1 3.4 4.2 3.2 0.8 0.2 0.4 0.2 0.0 0.3 0.0 0.0 0.0 0.7 1.6 2.7 6.2 5.8 6.0
0.0 0.0 0.0 0.0 0.0 0.0 0.0 0.0 0.0 0.0 0.2 7.0 16.2 25.5 18.2 14.1 9.2 6.3 3.5 2.2 0.7 0.5 0.9 2.6 5.6 6.6 2.3 9.4 10.1 20.2 11.9 10.1 19.8 15.5 12.5 10.5 6.5 4.3 3.5 2.9 2.9 2.4 1.2 1.4 0.7 0.6 1.9 1.6 3.0 4.5 4.7 7.0 6.5 7.0
0.0 0.0 0.0 0.0 0.0 0.0 0.0 0.0 0.0 0.0 5.7 15.9 8.1 12.7 9.0 7.5 4.5 3.3 2.2 1.3 1.1 1.8 4.1 8.5 7.4 3.9 8.4 14.2 6.1 7.0 15.2 16.6 13.2 17.3 13.0 10.3 7.3 5.8 6.1 5.9 6.6 8.7 9.7 9.1 11.8 13.0 12.6 10.3 8.4 11.4 11.5 10.3 8.2 9.3
0.0 0.0 0.0 0.0 0.0 0.0 0.0 0.0 1.2 3.6 9.7 7.6 8.1 9.1 6.1 4.3 7.2 5.2 4.4 3.7 1.6 2.9 5.4 8.3 12.7 12.7 13.7 9.4 10.6 11.1 13.0 18.8 16.6 10.5 7.2 3.8 3.4 3.9 5.1 6.8 8.2 9.8 11.9 12.9 13.0 14.9 17.5 19.4 19.8 20.6 19.8 17.6 17.0 14.8
0.0 0.4 0.0 0.0 0.0 0.5 1.6 3.2 2.6 16.0 11.1 6.0 11.5 7.4 8.0 9.0 7.9 6.9 6.9 6.5 4.8 9.0 13.6 11.0 18.6 13.2 6.6 8.4 9.2 8.9 16.0 13.8 8.3 7.9 5.5 5.0 6.5 7.1 7.0 6.5 7.7 8.1 11.4 13.0 13.7 14.8 16.8 18.0 17.0 15.5 17.9 21.2 18.0 17.9
0.4 0.0 0.0 0.0 0.0 3.7 5.7 1.2 8.1 7.3 9.6 8.4 11.7 12.6 7.0 8.5 9.8 9.0 7.9 8.2 8.0 6.5 5.7 14.5 5.6 6.3 8.5 9.5 14.9 15.4 13.7 10.9 6.7 7.3 8.3 8.6 8.0 8.7 7.6 6.8 8.1 8.5 10.1 13.0 12.4 14.1 14.0 12.3 11.0 13.6 13.4 14.4 13.0 14.5
0.4 0.2 0.0 0.0 0.2 5.9 12.0 5.6 2.1 8.1 9.3 7.8 8.5 7.6 6.3 10.0 12.1 10.7 10.6 9.5 6.2 4.0 8.1 7.3 9.3 6.2 10.7 12.6 16.1 13.8 10.9 9.0 11.4 12.2 13.2 13.0 11.9 10.6 10.0 9.4 8.7 11.7 11.9 13.9 12.3 11.2 12.3 11.4 9.7 9.6 10.3 10.3 9.5 11.7
0.0 0.2 0.0 0.3 0.6 16.5 14.6 7.1 0.7 3.0 6.6 6.5 5.4 6.5 6.2 11.2 10.3 8.8 7.1 5.9 5.3 7.9 10.8 10.6 13.8 16.7 18.6 18.4 18.5 16.6 12.8 10.1 8.4 10.5 14.1 16.5 16.9 13.0 13.0 12.8 13.6 12.9 11.2 11.7 12.2 12.4 11.8 12.2 12.1 8.3 7.3 9.0 9.1 9.5
0.4 0.0 0.0 0.7 4.5 9.5 7.9 4.8 6.7 2.0 3.7 5.0 4.8 1.9 7.2 3.1 4.8 5.1 4.5 2.0 4.7 10.9 13.5 16.1 19.1 18.1 18.0 19.9 16.9 12.5 12.0 8.7 10.7 8.8 10.8 13.9 15.6 11.1 12.4 13.2 10.6 9.5 7.4 9.4 9.9 13.9 12.0 10.4 10.4 9.0 6.8 5.8 6.3 6.3
0.4 0.2 2.1 1.7 11.9 11.3 11.4 2.3 1.9 2.8 3.2 3.6 3.0 2.1 4.8 5.7 3.5 4.0 1.0 4.0 12.4 18.8 16.8 17.4 17.3 15.9 14.3 16.1 17.6 14.8 16.3 10.6 9.9 10.0 11.1 9.2 11.7 11.0 12.2 13.3 9.1 9.1 8.1 8.5 7.4 9.3 8.9 6.9 6.0 5.7 5.0 4.0 2.6 3.6
1.1 2.3 8.5 6.7 12.8 9.1 4.5 1.1 4.7 4.7 6.8 6.1 3.6 4.2 5.4 4.1 3.9 0.1 6.0 10.1 17.6 19.6 16.3 13.5 14.7 14.9 15.3 17.3 13.0 12.4 14.5 11.3 13.5 16.3 15.6 14.0 13.1 12.6 10.6 11.0 9.2 7.9 8.1 8.8 6.0 5.8 4.8 3.6 3.1 3.7 3.6 3.3 3.2 3.4
1.5 10.5 13.6 11.6 8.2 5.2 2.0 3.3 3.7 4.5 4.1 4.0 4.9 5.0 5.7 3.8 0.1 5.2 10.6 15.4 18.4 12.1 10.5 12.4 10.5 13.2 13.1 11.8 14.2 15.1 18.3 11.9 12.0 14.0 14.7 11.1 9.6 11.6 8.6 8.7 6.4 6.1 5.9 5.4 3.6 3.5 3.1 3.0 1.9 2.2 2.4 3.6 2.9 3.0
30.0 17.7 9.4 8.9 5.9 6.4 4.6 2.0 2.3 4.7 8.3 6.3 9.6 10.3 11.8 5.6 11.7 11.6 13.6 17.9 12.2 11.1 10.8 10.5 9.8 10.2 10.6 13.4 14.9 15.7 14.4 13.7 14.4 14.4 16.6 13.0 10.8 9.4 8.5 7.0 6.4 6.2 3.8 3.6 4.9 4.7 4.2 3.2 3.2 2.4 1.5 1.2 1.5 2.8
14.6 5.8 9.6 6.6 7.2 7.8 8.2 7.0 6.9 5.3 4.8 5.2 7.2 3.8 3.1 6.3 8.7 18.9 18.8 19.1 14.0 13.7 14.2 14.4 13.9 10.4 11.3 12.0 11.7 9.3 11.5 11.4 11.3 11.4 16.8 13.6 12.9 12.9 10.9 8.9 7.5 7.8 4.3 4.3 5.4 4.9 3.9 3.6 3.2 3.0 3.2 1.7 1.6 3.3
11.4 5.0 1.6 0.7 1.6 2.6 3.5 3.4 3.4 4.9 6.6 8.8 6.4 5.2 5.2 11.0 13.7 14.9 12.0 11.9 11.9 13.6 11.9 11.9 10.3 11.4 12.0 11.2 9.8 8.7 7.5 6.5 6.9 9.8 11.5 11.3 11.6 12.8 12.8 14.0 12.9 11.7 6.8 5.5 4.5 4.8 5.7 4.7 4.3 4.0 4.1 3.7 3.3 4.3
3.9 1.9 2.7 1.9 2.5 2.2 3.6 3.1 5.1 7.1 6.0 4.5 6.0 7.2 10.3 10.4 15.2 14.7 12.6 12.3 9.9 7.8 6.3 5.7 4.9 5.5 6.2 6.5 6.7 6.0 4.9 5.9 6.2 6.1 5.5 6.0 7.8 11.1 10.9 10.2 8.2 6.9 7.5 7.3 6.9 5.4 5.1 5.2 4.8 5.1 4.9 4.8 4.7 3.9
3.5 2.3 3.0 4.8 3.4 3.3 6.7 7.0 7.4 5.1 4.2 4.0 5.3 6.9 9.4 9.9 14.5 12.8 12.0 8.7 7.4 5.6 4.9 3.9 4.6 2.1 2.0 1.4 1.5 2.7 4.2 5.1 4.9 6.3 5.7 7.1 8.4 7.9 7.4 7.5 6.5 6.9 7.1 7.9 7.2 6.8 6.7 5.2 4.2 4.3 5.4 7.3 5.8 5.5
2.2 2.1 2.7 3.4 3.4 4.8 8.8 4.0 5.5 3.8 1.5 1.5 1.1 2.2 3.1 11.0 17.9 12.6 8.6 6.3 5.4 6.1 6.0 4.9 3.8 2.5 2.6 2.2 1.9 1.7 3.6 4.2 4.7 5.9 6.0 5.5 6.9 6.2 5.9 6.0 5.7 5.0 6.2 6.8 9.2 9.0 9.2 7.9 7.4 7.6 7.5 6.9 7.2 9.1
0.8 1.3 1.4 3.1 5.0 6.8 4.5 2.9 2.5 2.0 1.3 1.1 0.8 1.6 4.3 8.0 10.9 7.3 5.3 6.5 4.3 3.0 2.6 2.9 3.1 3.4 2.7 3.2 4.7 4.5 4.6 3.1 3.2 3.9 4.1 4.9 4.4 4.5 4.4 3.7 4.8 4.9 5.4 6.4 6.3 8.6 11.1 11.6 11.0 11.2 10.0 8.5 7.7 8.5
1.1 2.9 2.6 1.7 3.5 3.5 4.4 6.7 4.4 2.4 2.3 2.1 4.1 2.8 5.8 5.8 6.3 7.3 5.3 4.8 4.1 3.1 2.9 3.9 4.1 4.5 5.1 6.3 6.7 6.7 6.2 4.7 4.1 4.3 4.0 4.0 4.7 4.8 4.2 2.9 2.9 3.5 3.7 4.6 5.1 6.9 8.6 10.9 13.6 12.3 10.6 10.4 10.5 9.4
2.1 2.3 1.9 2.5 2.8 3.9 2.8 4.5 1.6 2.7 3.0 4.4 7.0 5.0 5.3 5.2 9.9 11.3 4.7 4.8 8.6 7.1 6.8 7.6 7.5 7.3 7.9 7.6 7.8 6.4 4.3 5.0 4.4 4.1 3.8 4.0 3.7 3.7 3.4 3.3 3.5 3.8 3.7 3.8 4.6 5.6 6.1 8.2 9.5 12.6 13.6 13.7 14.4 13.5

GFSWCAN_prec_kuchsnow_258.txt.gz
Snowfall_Accumulation
0.0 0.0 0.0 0.0 0.0 0.0 0.0 0.0 0.0 0.0 0.0 0.0 0.0 0.0 0.0 0.0 0.0 0.0 0.0 0.0 0.2 18.4 5.2 0.0 0.0 1.8 4.1 5.4 17.8 8.6 12.4 13.1 20.9 38.4 28.2 20.8 12.7 3.7 4.9 2.5 2.4 3.6 15.9 22.8 23.0 33.1 20.1 0.1 0.0 1.2 0.7 0.1 0.6 3.6
0.0 0.0 0.0 0.0 0.0 0.0 0.0 0.0 0.0 0.0 0.0 0.0 0.0 0.0 0.0 0.0 0.0 0.0 0.5 0.0 0.0 12.7 11.1 0.0 0.0 0.0 0.0 0.0 3.8 8.8 12.5 8.0 7.9 25.0 16.0 13.2 16.7 11.2 2.8 10.4 2.7 9.9 5.9 13.0 11.1 11.4 1.0 0.0 0.3 0.2 0.2 0.4 1.1 3.6
0.0 0.0 0.0 0.0 0.0 0.0 0.0 0.0 0.0 0.0 0.0 0.0 0.0 0.0 0.0 0.0 0.0 0.0 0.0 0.0 0.0 18.3 8.1 2.3 4.2 0.0 0.0 0.0 0.0 13.1 3.3 1.7 6.5 5.2 12.6 9.5 17.0 4.4 10.9 6.9 6.5 2.8 1.2 7.5 3.5 0.6 0.2 0.1 0.0 0.0 0.1 0.1 0.2 1.3
0.0 0.0 0.0 0.0 0.0 0.0 0.0 0.0 0.0 0.0 0.0 0.0 0.0 0.0 0.0 0.0 0.0 0.0 0.0 0.0 1.8 9.7 26.8 7.3 0.0 2.0 0.0 0.0 0.0 0.0 0.0 0.0 0.4 0.9 15.9 15.2 13.6 1.1 2.7 1.5 4.5 5.2 4.5 5.0 2.1 0.3 0.4 0.1 0.2 0.1 0.1 0.1 0.2 0.1
0.0 0.0 0.0 0.0 0.0 0.0 0.0 0.0 0.0 0.0 0.0 0.0 0.0 0.0 0.0 0.0 0.0 0.0 0.0 0.0 0.0 3.7 16.0 7.0 0.0 0.0 0.5 0.0 0.0 0.0 0.0 0.9 2.8 11.9 19.2 13.0 1.3 3.3 2.4 2.7 5.5 1.2 8.2 9.7 8.6 1.5 2.2 0.6 0.3 0.1 0.4 0.6 0.6 0.4
0.0 0.0 0.0 0.0 0.0 0.0 0.0 0.0 0.0 0.0 0.0 0.0 0.0 0.0 0.0 0.0 0.0 0.0 35.3 0.0 0.0 0.0 14.7 16.8 0.9 1.1 2.3 0.8 0.2 0.4 0.5 1.8 2.7 8.6 8.1 2.0 0.0 3.0 11.3 6.1 0.4 0.7 3.5 4.9 8.5 2.1 2.1 1.8 0.9 0.3 1.3 2.3 2.8 1.8
0.0 0.0 0.0 0.0 0.0 0.0 0.0 0.0 0.0 0.0 0.0 0.0 0.0 0.0 0.0 0.0 0.0 13.2 7.7 0.3 0.0 0.0 24.9 17.2 9.8 0.6 1.0 1.0 1.2 3.7 1.5 4.5 3.4 5.4 5.2 1.7 1.5 2.8 5.9 1.1 0.0 0.0 0.8 2.4 3.6 5.3 6.4 6.4 9.9 4.7 1.2 1.5 1.8 0.3
0.0 0.0 0.0 0.0 0.0 0.0 0.0 0.0 0.0 0.0 0.0 0.0 0.0 0.0 0.0 0.0 0.0 2.5 0.0 0.0 0.0 1.2 7.5 20.8 13.3 9.4 0.3 5.2 7.2 1.4 7.2 5.8 6.8 5.2 2.5 1.7 1.7 2.7 8.9 0.0 0.0 0.1 0.2 0.6 0.5 0.8 3.3 4.1 3.9 3.4 1.0 0.2 0.1 0.0
0.0 0.0 0.0 0.0 0.0 0.0 0.0 0.0 0.0 0.0 0.0 0.0 0.0 0.0 0.0 0.0 19.3 0.0 0.0 0.0 0.0 1.4 20.7 10.2 8.8 20.0 0.5 4.1 2.7 4.3 2.8 20.6 4.7 13.1 4.5 2.6 5.1 9.0 0.7 0.0 0.1 0.1 0.1 0.0 0.0 0.0 0.2 0.6 0.2 0.0 0.3 0.1 0.6 0.7
0.0 0.0 0.0 0.0 0.0 0.0 0.0 0.0 0.0 0.0 0.0 0.0 0.0 24.5 50.1 1.8 0.0 0.0 3.1 15.1 20.3 15.4 9.3 9.6 0.7 9.5 1.2 2.2 11.1 10.0 10.3 11.3 17.2 4.4 1.6 7.6 2.8 0.8 0.3 0.3 0.2 0.2 0.1 0.0 0.5 1.2 1.0 0.7 0.2 0.0 0.0 0.5 0.2 0.1
0.0 0.0 0.0 0.0 0.0 0.0 0.0 0.0 0.0 0.0 0.0 0.0 20.3 16.4 0.0 0.0 0.1 5.5 31.5 23.7 13.6 16.3 2.4 1.1 0.0 1.0 0.0 5.9 10.1 3.5 13.7 6.7 16.3 3.2 4.6 7.4 5.7 4.9 2.6 2.4 1.4 0.7 0.2 0.1 0.0 0.1 0.0 0.0 1.1 0.9 0.5 0.1 0.0 0.1
0.0 0.0 0.0 0.0 0.0 0.0 0.0 0.0 0.0 0.0 0.0 0.0 0.1 0.0 0.1 4.9 17.9 26.0 22.8 11.2 3.3 2.5 2.2 1.9 3.2 4.5 1.2 0.4 11.0 12.1 13.1 11.8 9.7 1.6 14.1 9.2 7.2 2.2 1.8 3.2 1.0 0.0 0.0 0.0 0.0 0.0 0.0 0.0 0.0 0.1 0.7 0.7 0.9 3.7
0.0 0.0 0.0 0.0 0.0 0.0 0.0 0.0 0.0 0.0 0.0 0.0 5.1 13.4 14.7 17.8 31.0 20.2 12.1 6.7 4.7 1.0 0.9 0.8 9.1 3.2 4.5 2.6 15.2 16.2 26.8 12.9 1.6 26.6 15.9 9.1 3.4 4.2 3.2 0.8 0.2 0.4 0.2 0.0 0.3 0.0 0.0 0.0 0.7 1.6 2.7 6.2 5.8 6.0
0.0 0.0 0.0 0.0 0.0 0.0 0.0 0.0 0.0 0.0 0.5 7.3 16.5 26.2 18.3 14.4 9.3 6.3 3.5 2.2 0.7 0.5 1.0 2.6 6.2 7.4 2.8 10.4 10.2 20.9 11.9 10.9 21.2 16.4 12.5 10.5 6.5 4.3 3.5 2.9 2.9 2.4 1.2 1.4 0.7 0.6 1.9 1.6 3.0 4.5 4.7 7.0 6.5 7.0
0.0 0.0 0.0 0.0 0.0 0.0 0.0 0.0 0.0 0.0 7.1 16.6 8.2 13.0 9.1 7.5 4.5 3.3 2.2 1.3 1.1 1.8 4.1 8.7 7.9 4.8 9.9 15.6 6.3 7.1 15.2 16.9 13.4 17.4 13.0 10.3 7.3 5.8 6.1 5.9 6.6 8.7 9.7 9.1 11.8 13.0 12.6 10.3 8.4 11.4 11.5 10.3 8.2 9.3
0.0 0.0 0.0 0.0 0.0 0.0 0.0 0.0 1.2 3.9 11.9 8.7 8.8 9.3 6.1 4.3 7.2 5.2 4.4 3.7 1.6 2.9 5.5 8.5 13.2 13.4 14.5 9.9 10.9 11.5 13.2 18.9 16.6 10.5 7.2 3.8 3.4 3.9 5.1 6.8 8.2 9.8 11.9 12.9 13.0 14.9 17.5 19.4 19.8 20.6 19.8 17.6 17.0 14.8
0.0 0.4 0.0 0.0 0.0 0.5 1.6 3.5 3.2 18.0 13.0 7.5 11.9 7.4 8.1 9.1 7.9 6.9 6.9 6.6 4.8 9.4 15.1 11.3 20.8 13.8 6.6 8.6 9.4 9.1 16.1 13.8 8.3 7.9 5.5 5.0 6.5 7.1 7.0 6.5 7.7 8.1 11.4 13.0 13.7 14.8 16.8 18.0 17.0 15.5 17.9 21.2 18.0 17.9
0.5 0.0 0.0 0.0 0.0 3.7 5.7 2.0 9.9 8.4 10.2 8.4 12.5 13.0 7.1 8.5 9.8 9.0 7.9 8.2 8.0 6.9 6.1 15.3 6.0 6.3 8.9 9.6 15.1 15.5 13.7 10.9 6.7 7.3 8.3 8.6 8.0 8.7 7.6 6.8 8.1 8.5 10.1 13.0 12.4 14.1 14.0 12.3 11.0 13.6 13.4 14.4 13.0 14.5
0.4 0.2 0.0 0.0 0.2 6.4 13.1 6.7 3.0 9.2 9.3 7.8 8.5 7.6 6.4 10.0 12.1 10.7 10.6 9.5 6.3 4.0 8.7 7.9 10.1 6.5 10.7 12.6 16.1 13.8 10.9 9.0 11.4 12.2 13.2 13.0 11.9 10.6 10.0 9.4 8.7 11.7 11.9 13.9 12.3 11.2 12.3 11.4 9.7 9.6 10.3 10.3 9.5 11.7
0.0 0.2 0.0 0.3 0.7 19.0 16.9 7.7 0.7 3.3 6.6 6.5 5.4 6.5 6.2 11.2 10.3 8.8 7.1 5.9 5.3 7.9 11.0 10.8 13.8 16.7 18.6 18.4 18.5 16.6 12.8 10.1 8.4 10.5 14.1 16.5 16.9 13.0 13.0 12.8 13.6 12.9 11.2 11.7 12.2 12.4 11.8 12.2 12.1 8.3 7.3 9.0 9.2 9.5
0.4 0.0 0.0 0.7 5.0 11.0 9.5 5.0 7.0 2.0 3.8 5.0 4.8 1.9 7.3 3.1 4.8 5.1 4.6 2.0 4.8 10.9 13.5 16.1 19.1 18.1 18.0 19.9 16.9 12.5 12.0 8.7 10.7 8.8 10.8 13.9 15.6 11.1 12.4 13.2 10.6 9.5 7.4 9.4 9.9 13.9 12.0 10.4 10.4 9.0 6.8 5.8 6.3 6.3
0.4 0.2 2.4 1.7 12.8 12.4 12.6 2.3 2.0 2.9 3.2 3.6 3.0 2.1 4.8 5.7 3.5 4.0 1.0 4.0 12.4 18.8 16.8 17.4 17.3 15.9 14.3 16.1 17.6 14.8 16.3 10.6 9.9 10.0 11.1 9.2 11.7 11.0 12.2 13.3 9.1 9.1 8.1 8.5 7.4 9.3 8.9 6.9 6.0 5.7 5.0 4.0 2.6 3.6
1.3 2.7 9.3 7.5 13.3 10.3 4.5 1.1 4.9 4.9 7.0 6.1 3.6 4.2 5.4 4.1 3.9 0.1 6.0 10.1 17.6 19.6 16.3 13.5 14.7 14.9 15.3 17.3 13.0 12.4 14.5 11.3 13.5 16.3 15.6 14.2 13.2 12.6 10.7 11.0 9.2 7.9 8.1 8.8 6.0 5.8 4.8 3.6 3.1 3.7 3.6 3.3 3.2 3.4
1.7 12.0 15.3 13.0 9.2 5.9 2.4 3.8 4.1 4.8 4.3 4.1 5.0 5.1 5.8 3.8 0.1 5.2 10.6 15.4 18.4 12.1 10.5 12.4 10.5 13.2 13.1 11.8 14.2 15.1 18.3 11.9 12.7 14.8 15.2 11.3 9.9 11.9 8.8 8.8 6.4 6.1 5.9 5.4 3.6 3.5 3.1 3.0 1.9 2.2 2.4 3.6 2.9 3.0
30.4 17.7 9.8 10.1 6.8 6.9 4.9 2.2 2.5 4.9 8.5 6.4 9.7 10.3 11.8 5.6 11.7 11.6 13.6 17.9 12.2 11.1 10.8 10.5 9.8 10.2 10.6 13.4 14.9 15.7 14.4 13.7 15.0 14.7 16.9 13.0 11.0 9.5 8.5 7.0 6.4 6.2 3.8 3.6 4.9 4.7 4.2 3.2 3.2 2.4 1.5 1.2 1.5 2.8
15.9 5.8 9.8 7.1 7.4 8.0 8.3 7.0 6.9 5.4 4.8 5.3 7.2 3.8 3.1 6.3 8.7 18.9 18.8 19.1 14.0 13.7 14.2 14.4 13.9 10.4 11.3 12.0 11.7 9.3 11.5 11.6 11.4 11.4 16.8 13.6 12.9 12.9 10.9 8.9 7.5 7.8 4.3 4.3 5.4 4.9 3.9 3.6 3.2 3.0 3.2 1.7 1.6 3.3
12.6 5.1 1.7 0.7 1.6 2.6 3.5 3.4 3.4 4.9 6.6 8.8 6.4 5.2 5.3 11.0 13.7 14.9 12.0 11.9 11.9 13.6 11.9 11.9 10.4 11.9 12.7 11.8 10.2 9.1 7.8 6.7 7.1 9.9 11.5 11.3 11.6 12.8 12.8 14.0 12.9 11.7 6.8 5.5 4.5 4.8 5.7 4.7 4.3 4.0 4.1 3.7 3.3 4.3
3.9 1.9 2.8 2.0 2.6 2.2 3.7 3.1 5.1 7.1 6.0 4.5 6.0 7.2 10.4 10.4 15.2 14.7 12.7 12.3 9.9 7.8 6.5 6.0 5.1 5.9 6.5 7.1 7.4 6.5 5.1 5.9 6.2 6.1 5.5 6.0 7.8 11.1 10.9 10.2 8.2 6.9 7.5 7.3 6.9 5.4 5.1 5.2 4.8 5.1 4.9 4.8 4.7 3.9
3.5 2.3 3.0 4.8 3.4 3.8 7.0 7.1 7.5 5.1 4.2 4.1 5.4 6.9 9.4 9.9 14.5 12.8 12.0 8.7 7.4 6.0 5.3 4.2 4.8 2.3 2.1 1.4 1.5 2.7 4.2 5.1 4.9 6.3 5.7 7.1 8.4 7.9 7.4 7.5 6.5 6.9 7.1 7.9 7.2 6.8 6.7 5.2 4.2 4.3 5.4 7.3 5.8 5.5
2.2 2.1 2.8 3.4 3.4 4.8 8.9 4.0 5.5 3.8 1.5 1.5 1.2 2.2 3.1 11.0 17.9 12.6 8.6 6.3 5.4 6.1 6.0 4.9 3.8 2.5 2.6 2.2 2.0 1.8 3.8 4.3 4.7 5.9 6.0 5.5 6.9 6.2 5.9 6.0 5.7 5.0 6.2 6.8 9.2 9.0 9.2 7.9 7.4 7.6 7.5 6.9 7.2 9.1
0.8 1.3 1.4 3.1 5.0 6.8 4.5 3.0 2.5 2.0 1.3 1.1 0.8 1.6 4.3 8.0 10.9 7.3 5.3 6.5 4.3 3.0 2.6 2.9 3.1 3.4 2.7 3.2 4.8 4.6 4.6 3.1 3.2 3.9 4.1 4.9 4.4 4.5 4.4 3.7 4.8 4.9 5.4 6.4 6.3 8.6 11.1 11.6 11.0 11.2 10.0 8.5 7.7 8.5
1.1 2.9 2.6 1.7 3.5 3.5 4.4 6.7 4.4 2.4 2.3 2.1 4.1 2.8 5.8 5.8 6.3 7.3 5.3 4.8 4.1 3.1 2.9 3.9 4.1 4.5 5.1 6.3 6.7 6.7 6.2 4.7 4.1 4.3 4.0 4.0 4.7 4.8 4.2 2.9 2.9 3.5 3.7 4.6 5.1 6.9 8.6 10.9 13.6 12.3 10.6 10.4 10.5 9.4
2.1 2.3 1.9 3.2 3.3 3.9 2.8 4.5 1.7 2.7 3.0 4.5 7.0 5.0 5.3 5.2 9.9 11.3 4.7 4.9 8.6 7.1 6.8 7.7 7.5 7.3 7.9 7.6 7.8 6.4 4.3 5.0 4.4 4.1 3.8 4.0 3.7 3.7 3.4 3.3 3.5 3.8 3.7 3.8 4.6 5.6 6.1 8.2 9.5 12.6 13.6 13.7 14.4 13.5